Wetterdaten: Samstag, 01.08.2020
Datum Zeit Temp. Aussen Temp. o. S. Temp +5cm Feuchte Auss Luftdruck Regen Sonnenschein Regendauer Solar Windben Empfang
01.08.2020 00:00 24,1 C 21,7 C 20,6 C 65 % 1012,6 hPa 0,0 l/m 0 min 0 min 0 W/m 0,0 km/h (0 Bft) 100,00 %
01.08.2020 00:02 24,1 C 21,7 C 20,6 C 66 % 1012,7 hPa 0,0 l/m 0 min 0 min 0 W/m 0,0 km/h (0 Bft) 100,00 %
01.08.2020 00:04 24,0 C 21,7 C 20,6 C 66 % 1012,6 hPa 0,0 l/m 0 min 0 min 0 W/m 0,0 km/h (0 Bft) 97,96 %
01.08.2020 00:07 23,9 C 21,1 C 20,6 C 66 % 1012,6 hPa 0,0 l/m 0 min 0 min 0 W/m 0,0 km/h (0 Bft) 98,75 %
01.08.2020 00:08 23,9 C 21,1 C 20,6 C 66 % 1012,6 hPa 0,0 l/m 0 min 0 min 0 W/m 0,0 km/h (0 Bft) 100,00 %
01.08.2020 00:10 23,9 C 21,1 C 20,6 C 66 % 1012,6 hPa 0,0 l/m 0 min 0 min 0 W/m 3,2 km/h (1 Bft) 100,00 %
01.08.2020 00:12 23,8 C 21,1 C 20,6 C 67 % 1012,6 hPa 0,0 l/m 0 min 0 min 0 W/m 3,2 km/h (1 Bft) 100,00 %
01.08.2020 00:14 23,8 C 21,1 C 20,6 C 67 % 1012,7 hPa 0,0 l/m 0 min 0 min 0 W/m 0,0 km/h (0 Bft) 100,00 %
01.08.2020 00:16 23,7 C 21,1 C 20,6 C 67 % 1012,6 hPa 0,0 l/m 0 min 0 min 0 W/m 0,0 km/h (0 Bft) 100,00 %
01.08.2020 00:18 23,7 C 21,1 C 20,6 C 67 % 1012,6 hPa 0,0 l/m 0 min 0 min 0 W/m 0,0 km/h (0 Bft) 100,00 %
01.08.2020 00:20 23,6 C 21,1 C 20,6 C 67 % 1012,6 hPa 0,0 l/m 0 min 0 min 0 W/m 0,0 km/h (0 Bft) 100,00 %
01.08.2020 00:22 23,6 C 21,1 C 20,6 C 67 % 1012,6 hPa 0,0 l/m 0 min 0 min 0 W/m 0,0 km/h (0 Bft) 96,30 %
01.08.2020 00:24 23,6 C 21,1 C 20,0 C 67 % 1012,7 hPa 0,0 l/m 0 min 0 min 0 W/m 0,0 km/h (0 Bft) 97,37 %
01.08.2020 00:26 23,5 C 21,1 C 20,0 C 67 % 1012,6 hPa 0,0 l/m 0 min 0 min 0 W/m 0,0 km/h (0 Bft) 100,00 %
01.08.2020 00:28 23,4 C 21,1 C 20,0 C 67 % 1012,6 hPa 0,0 l/m 0 min 0 min 0 W/m 0,0 km/h (0 Bft) 100,00 %
01.08.2020 00:30 23,4 C 21,1 C 20,0 C 67 % 1012,6 hPa 0,0 l/m 0 min 0 min 0 W/m 0,0 km/h (0 Bft) 100,00 %
01.08.2020 00:32 23,3 C 21,1 C 20,0 C 68 % 1012,6 hPa 0,0 l/m 0 min 0 min 0 W/m 0,0 km/h (0 Bft) 100,00 %
01.08.2020 00:34 23,3 C 20,6 C 20,0 C 68 % 1012,6 hPa 0,0 l/m 0 min 0 min 0 W/m 0,0 km/h (0 Bft) 100,00 %
01.08.2020 00:36 23,2 C 20,6 C 20,0 C 68 % 1012,6 hPa 0,0 l/m 0 min 0 min 0 W/m 0,0 km/h (0 Bft) 100,00 %
01.08.2020 00:38 23,2 C 20,6 C 20,0 C 68 % 1012,6 hPa 0,0 l/m 0 min 0 min 0 W/m 0,0 km/h (0 Bft) 100,00 %
01.08.2020 00:40 23,2 C 20,6 C 20,0 C 68 % 1012,5 hPa 0,0 l/m 0 min 0 min 0 W/m 0,0 km/h (0 Bft) 97,87 %
01.08.2020 00:42 23,1 C 21,1 C 20,0 C 69 % 1012,5 hPa 0,0 l/m 0 min 0 min 0 W/m 3,2 km/h (1 Bft) 100,00 %
01.08.2020 00:44 23,1 C 21,1 C 20,0 C 68 % 1012,5 hPa 0,0 l/m 0 min 0 min 0 W/m 3,2 km/h (1 Bft) 100,00 %
01.08.2020 00:46 23,0 C 21,1 C 20,0 C 68 % 1012,5 hPa 0,0 l/m 0 min 0 min 0 W/m 0,0 km/h (0 Bft) 100,00 %
01.08.2020 00:48 23,0 C 21,1 C 20,0 C 69 % 1012,5 hPa 0,0 l/m 0 min 0 min 0 W/m 0,0 km/h (0 Bft) 100,00 %
01.08.2020 00:50 22,9 C 21,1 C 20,0 C 69 % 1012,5 hPa 0,0 l/m 0 min 0 min 0 W/m 3,2 km/h (1 Bft) 100,00 %
01.08.2020 00:52 22,9 C 21,1 C 20,0 C 69 % 1012,5 hPa 0,0 l/m 0 min 0 min 0 W/m 3,2 km/h (1 Bft) 100,00 %
01.08.2020 00:54 22,8 C 21,1 C 20,0 C 69 % 1012,5 hPa 0,0 l/m 0 min 0 min 0 W/m 3,2 km/h (1 Bft) 100,00 %
01.08.2020 00:56 22,8 C 21,1 C 20,0 C 69 % 1012,5 hPa 0,0 l/m 0 min 0 min 0 W/m 3,2 km/h (1 Bft) 100,00 %
01.08.2020 00:58 22,8 C 21,1 C 20,0 C 69 % 1012,5 hPa 0,0 l/m 0 min 0 min 0 W/m 3,2 km/h (1 Bft) 100,00 %
01.08.2020 01:00 22,7 C 21,1 C 20,0 C 70 % 1012,5 hPa 0,0 l/m 0 min 0 min 0 W/m 3,2 km/h (1 Bft) 100,00 %
01.08.2020 01:02 22,7 C 21,1 C 20,0 C 70 % 1012,5 hPa 0,0 l/m 0 min 0 min 0 W/m 3,2 km/h (1 Bft) 100,00 %
01.08.2020 01:04 22,7 C 21,1 C 20,0 C 70 % 1012,5 hPa 0,0 l/m 0 min 0 min 0 W/m 0,0 km/h (0 Bft) 95,74 %
01.08.2020 01:06 22,7 C 21,1 C 20,0 C 70 % 1012,4 hPa 0,0 l/m 0 min 0 min 0 W/m 3,2 km/h (1 Bft) 100,00 %
01.08.2020 01:08 22,7 C 21,1 C 20,0 C 70 % 1012,4 hPa 0,0 l/m 0 min 0 min 0 W/m 3,2 km/h (1 Bft) 100,00 %
01.08.2020 01:10 22,6 C 21,7 C 20,0 C 70 % 1012,4 hPa 0,0 l/m 0 min 0 min 0 W/m 3,2 km/h (1 Bft) 97,96 %
01.08.2020 01:12 22,6 C 21,7 C 20,0 C 70 % 1012,4 hPa 0,0 l/m 0 min 0 min 0 W/m 3,2 km/h (1 Bft) 97,87 %
01.08.2020 01:14 22,6 C 21,7 C 20,0 C 70 % 1012,4 hPa 0,0 l/m 0 min 0 min 0 W/m 3,2 km/h (1 Bft) 97,87 %
01.08.2020 01:16 22,6 C 21,7 C 20,0 C 70 % 1012,3 hPa 0,0 l/m 0 min 0 min 0 W/m 6,4 km/h (2 Bft) 100,00 %
01.08.2020 01:18 22,6 C 22,2 C 20,6 C 70 % 1012,4 hPa 0,0 l/m 0 min 0 min 0 W/m 3,2 km/h (1 Bft) 100,00 %
01.08.2020 01:20 22,6 C 22,2 C 20,6 C 70 % 1012,3 hPa 0,0 l/m 0 min 0 min 0 W/m 6,4 km/h (2 Bft) 98,18 %
01.08.2020 01:22 22,6 C 22,8 C 20,6 C 69 % 1012,3 hPa 0,0 l/m 0 min 0 min 0 W/m 16,1 km/h (3 Bft) 94,59 %
01.08.2020 01:24 22,6 C 23,3 C 21,1 C 68 % 1012,4 hPa 0,0 l/m 0 min 0 min 0 W/m 19,3 km/h (3 Bft) 95,83 %
01.08.2020 01:26 22,7 C 23,9 C 21,7 C 68 % 1012,4 hPa 0,0 l/m 0 min 0 min 0 W/m 16,1 km/h (3 Bft) 93,62 %
01.08.2020 01:28 22,8 C 23,9 C 22,2 C 67 % 1012,4 hPa 0,0 l/m 0 min 0 min 0 W/m 12,9 km/h (3 Bft) 95,74 %
01.08.2020 01:30 22,8 C 23,9 C 22,2 C 67 % 1012,5 hPa 0,0 l/m 0 min 0 min 0 W/m 6,4 km/h (2 Bft) 94,44 %
01.08.2020 01:32 22,9 C 23,9 C 22,2 C 66 % 1012,4 hPa 0,0 l/m 0 min 0 min 0 W/m 6,4 km/h (2 Bft) 97,44 %
01.08.2020 01:34 23,1 C 23,9 C 22,2 C 66 % 1012,5 hPa 0,0 l/m 0 min 0 min 0 W/m 6,4 km/h (2 Bft) 91,67 %
01.08.2020 01:36 23,1 C 23,9 C 22,2 C 66 % 1012,5 hPa 0,0 l/m 0 min 0 min 0 W/m 12,9 km/h (3 Bft) 93,48 %
01.08.2020 01:38 23,3 C 23,9 C 22,8 C 65 % 1012,4 hPa 0,0 l/m 0 min 0 min 0 W/m 12,9 km/h (3 Bft) 93,62 %
01.08.2020 01:40 23,4 C 23,9 C 22,8 C 65 % 1012,5 hPa 0,0 l/m 0 min 0 min 0 W/m 12,9 km/h (3 Bft) 93,62 %
01.08.2020 01:42 23,4 C 23,9 C 22,8 C 64 % 1012,5 hPa 0,0 l/m 0 min 0 min 0 W/m 6,4 km/h (2 Bft) 93,33 %
01.08.2020 01:44 23,6 C 23,9 C 22,8 C 64 % 1012,4 hPa 0,0 l/m 0 min 0 min 0 W/m 12,9 km/h (3 Bft) 91,84 %
01.08.2020 01:46 23,7 C 23,9 C 22,8 C 63 % 1012,4 hPa 0,0 l/m 0 min 0 min 0 W/m 6,4 km/h (2 Bft) 93,62 %
01.08.2020 01:48 23,8 C 23,9 C 22,8 C 63 % 1012,4 hPa 0,0 l/m 0 min 0 min 0 W/m 6,4 km/h (2 Bft) 91,30 %
01.08.2020 01:50 23,9 C 23,9 C 22,8 C 63 % 1012,4 hPa 0,0 l/m 0 min 0 min 0 W/m 12,9 km/h (3 Bft) 94,34 %
01.08.2020 01:52 24,0 C 23,9 C 22,8 C 62 % 1012,4 hPa 0,0 l/m 0 min 0 min 0 W/m 12,9 km/h (3 Bft) 92,11 %
01.08.2020 01:54 24,1 C 23,9 C 22,8 C 62 % 1012,4 hPa 0,0 l/m 0 min 0 min 0 W/m 9,7 km/h (2 Bft) 95,92 %
01.08.2020 01:56 24,2 C 23,9 C 23,3 C 62 % 1012,4 hPa 0,0 l/m 0 min 0 min 0 W/m 16,1 km/h (3 Bft) 93,75 %
01.08.2020 01:58 24,3 C 23,9 C 23,3 C 61 % 1012,4 hPa 0,0 l/m 0 min 0 min 0 W/m 12,9 km/h (3 Bft) 93,48 %
01.08.2020 02:00 24,4 C 23,9 C 23,3 C 61 % 1012,4 hPa 0,0 l/m 0 min 0 min 0 W/m 12,9 km/h (3 Bft) 89,36 %
01.08.2020 02:02 24,4 C 23,9 C 23,3 C 61 % 1012,4 hPa 0,0 l/m 0 min 0 min 0 W/m 12,9 km/h (3 Bft) 93,02 %
01.08.2020 02:04 24,6 C 24,4 C 23,3 C 61 % 1012,4 hPa 0,0 l/m 0 min 0 min 0 W/m 16,1 km/h (3 Bft) 96,08 %
01.08.2020 02:06 24,7 C 23,9 C 23,3 C 61 % 1012,4 hPa 0,0 l/m 0 min 0 min 0 W/m 16,1 km/h (3 Bft) 93,62 %
01.08.2020 02:08 24,7 C 23,9 C 23,3 C 60 % 1012,3 hPa 0,0 l/m 0 min 0 min 0 W/m 16,1 km/h (3 Bft) 94,34 %
01.08.2020 02:10 24,8 C 23,9 C 23,3 C 60 % 1012,3 hPa 0,0 l/m 0 min 0 min 0 W/m 12,9 km/h (3 Bft) 94,59 %
01.08.2020 02:12 24,8 C 23,9 C 23,3 C 60 % 1012,3 hPa 0,0 l/m 0 min 0 min 0 W/m 9,7 km/h (2 Bft) 96,00 %
01.08.2020 02:14 24,9 C 23,9 C 23,3 C 60 % 1012,3 hPa 0,0 l/m 0 min 0 min 0 W/m 6,4 km/h (2 Bft) 97,87 %
01.08.2020 02:16 24,9 C 23,9 C 22,8 C 60 % 1012,3 hPa 0,0 l/m 0 min 0 min 0 W/m 3,2 km/h (1 Bft) 96,30 %
01.08.2020 02:18 24,9 C 23,9 C 22,8 C 60 % 1012,3 hPa 0,0 l/m 0 min 0 min 0 W/m 6,4 km/h (2 Bft) 97,30 %
01.08.2020 02:20 24,9 C 23,9 C 22,8 C 60 % 1012,4 hPa 0,0 l/m 0 min 0 min 0 W/m 3,2 km/h (1 Bft) 97,96 %
01.08.2020 02:22 24,9 C 23,9 C 22,8 C 60 % 1012,4 hPa 0,0 l/m 0 min 0 min 0 W/m 12,9 km/h (3 Bft) 95,74 %
01.08.2020 02:24 24,9 C 23,9 C 22,8 C 60 % 1012,4 hPa 0,0 l/m 0 min 0 min 0 W/m 6,4 km/h (2 Bft) 95,74 %
01.08.2020 02:26 24,9 C 23,9 C 22,8 C 60 % 1012,4 hPa 0,0 l/m 0 min 0 min 0 W/m 12,9 km/h (3 Bft) 97,87 %
01.08.2020 02:28 24,9 C 23,9 C 22,8 C 60 % 1012,4 hPa 0,0 l/m 0 min 0 min 0 W/m 3,2 km/h (1 Bft) 100,00 %
01.08.2020 02:30 25,0 C 23,3 C 22,8 C 60 % 1012,3 hPa 0,0 l/m 0 min 0 min 0 W/m 6,4 km/h (2 Bft) 100,00 %
01.08.2020 02:32 24,9 C 23,3 C 22,8 C 60 % 1012,3 hPa 0,0 l/m 0 min 0 min 0 W/m 6,4 km/h (2 Bft) 100,00 %
01.08.2020 02:34 24,9 C 23,3 C 22,8 C 60 % 1012,3 hPa 0,0 l/m 0 min 0 min 0 W/m 6,4 km/h (2 Bft) 97,83 %
01.08.2020 02:36 24,9 C 23,3 C 22,8 C 60 % 1012,3 hPa 0,0 l/m 0 min 0 min 0 W/m 6,4 km/h (2 Bft) 97,87 %
01.08.2020 02:38 24,9 C 23,3 C 22,8 C 60 % 1012,2 hPa 0,0 l/m 0 min 0 min 0 W/m 12,9 km/h (3 Bft) 100,00 %
01.08.2020 02:40 24,9 C 23,3 C 22,8 C 60 % 1012,1 hPa 0,0 l/m 0 min 0 min 0 W/m 6,4 km/h (2 Bft) 100,00 %
01.08.2020 02:42 24,9 C 23,3 C 22,8 C 60 % 1012,1 hPa 0,0 l/m 0 min 0 min 0 W/m 6,4 km/h (2 Bft) 97,87 %
01.08.2020 02:44 24,9 C 23,3 C 22,8 C 60 % 1012,1 hPa 0,0 l/m 0 min 0 min 0 W/m 19,3 km/h (3 Bft) 100,00 %
01.08.2020 02:46 24,8 C 23,3 C 22,8 C 60 % 1012,1 hPa 0,0 l/m 0 min 0 min 0 W/m 12,9 km/h (3 Bft) 100,00 %
01.08.2020 02:48 24,8 C 23,3 C 22,8 C 60 % 1012,1 hPa 0,0 l/m 0 min 0 min 0 W/m 12,9 km/h (3 Bft) 97,87 %
01.08.2020 02:50 24,8 C 23,3 C 22,8 C 60 % 1012,0 hPa 0,0 l/m 0 min 0 min 0 W/m 6,4 km/h (2 Bft) 100,00 %
01.08.2020 02:52 24,8 C 23,3 C 22,8 C 60 % 1012,0 hPa 0,0 l/m 0 min 0 min 0 W/m 6,4 km/h (2 Bft) 100,00 %
01.08.2020 02:54 24,8 C 23,3 C 22,8 C 60 % 1012,0 hPa 0,0 l/m 0 min 0 min 0 W/m 6,4 km/h (2 Bft) 100,00 %
01.08.2020 02:56 24,8 C 23,3 C 22,2 C 60 % 1012,1 hPa 0,0 l/m 0 min 0 min 0 W/m 6,4 km/h (2 Bft) 95,65 %
01.08.2020 02:58 24,7 C 23,3 C 22,2 C 60 % 1012,2 hPa 0,0 l/m 0 min 0 min 0 W/m 6,4 km/h (2 Bft) 100,00 %
01.08.2020 03:00 24,7 C 23,3 C 22,2 C 60 % 1012,2 hPa 0,0 l/m 0 min 0 min 0 W/m 12,9 km/h (3 Bft) 97,87 %
01.08.2020 03:02 24,7 C 23,3 C 22,2 C 60 % 1012,2 hPa 0,0 l/m 0 min 0 min 0 W/m 16,1 km/h (3 Bft) 100,00 %
01.08.2020 03:04 24,7 C 23,3 C 22,8 C 60 % 1012,2 hPa 0,0 l/m 0 min 0 min 0 W/m 3,2 km/h (1 Bft) 100,00 %
01.08.2020 03:06 24,7 C 23,3 C 22,2 C 60 % 1012,2 hPa 0,0 l/m 0 min 0 min 0 W/m 6,4 km/h (2 Bft) 100,00 %
01.08.2020 03:08 24,7 C 23,3 C 22,2 C 60 % 1012,1 hPa 0,0 l/m 0 min 0 min 0 W/m 3,2 km/h (1 Bft) 97,87 %
01.08.2020 03:10 24,6 C 23,3 C 22,2 C 60 % 1012,1 hPa 0,0 l/m 0 min 0 min 0 W/m 6,4 km/h (2 Bft) 100,00 %
01.08.2020 03:12 24,6 C 23,3 C 22,2 C 60 % 1012,1 hPa 0,0 l/m 0 min 0 min 0 W/m 12,9 km/h (3 Bft) 100,00 %
01.08.2020 03:14 24,6 C 23,3 C 22,2 C 60 % 1012,1 hPa 0,0 l/m 0 min 0 min 0 W/m 12,9 km/h (3 Bft) 100,00 %
01.08.2020 03:16 24,6 C 23,3 C 22,2 C 60 % 1012,1 hPa 0,0 l/m 0 min 0 min 0 W/m 6,4 km/h (2 Bft) 97,87 %
01.08.2020 03:18 24,6 C 23,3 C 22,2 C 60 % 1012,1 hPa 0,0 l/m 0 min 0 min 0 W/m 6,4 km/h (2 Bft) 100,00 %
01.08.2020 03:20 24,6 C 23,3 C 22,2 C 60 % 1012,1 hPa 0,0 l/m 0 min 0 min 0 W/m 6,4 km/h (2 Bft) 100,00 %
01.08.2020 03:22 24,6 C 23,3 C 22,2 C 60 % 1012,2 hPa 0,0 l/m 0 min 0 min 0 W/m 6,4 km/h (2 Bft) 100,00 %
01.08.2020 03:24 24,6 C 23,3 C 22,2 C 60 % 1012,2 hPa 0,0 l/m 0 min 0 min 0 W/m 6,4 km/h (2 Bft) 100,00 %
01.08.2020 03:26 24,5 C 23,3 C 22,2 C 60 % 1012,2 hPa 0,0 l/m 0 min 0 min 0 W/m 6,4 km/h (2 Bft) 100,00 %
01.08.2020 03:28 24,5 C 23,3 C 22,2 C 60 % 1012,2 hPa 0,0 l/m 0 min 0 min 0 W/m 6,4 km/h (2 Bft) 100,00 %
01.08.2020 03:30 24,5 C 23,3 C 22,2 C 60 % 1012,2 hPa 0,0 l/m 0 min 0 min 0 W/m 6,4 km/h (2 Bft) 100,00 %
01.08.2020 03:32 24,4 C 23,3 C 22,2 C 60 % 1012,2 hPa 0,0 l/m 0 min 0 min 0 W/m 12,9 km/h (3 Bft) 100,00 %
01.08.2020 03:34 24,4 C 23,3 C 22,8 C 60 % 1012,1 hPa 0,0 l/m 0 min 0 min 0 W/m 16,1 km/h (3 Bft) 100,00 %
01.08.2020 03:36 24,4 C 23,3 C 22,8 C 60 % 1012,1 hPa 0,0 l/m 0 min 0 min 0 W/m 12,9 km/h (3 Bft) 100,00 %
01.08.2020 03:38 24,4 C 23,3 C 22,8 C 60 % 1012,1 hPa 0,0 l/m 0 min 0 min 0 W/m 6,4 km/h (2 Bft) 100,00 %
01.08.2020 03:40 24,4 C 23,3 C 22,8 C 60 % 1012,1 hPa 0,0 l/m 0 min 0 min 0 W/m 6,4 km/h (2 Bft) 100,00 %
01.08.2020 03:42 24,4 C 23,3 C 22,8 C 60 % 1012,2 hPa 0,0 l/m 0 min 0 min 0 W/m 16,1 km/h (3 Bft) 100,00 %
01.08.2020 03:44 24,4 C 23,3 C 22,8 C 60 % 1012,2 hPa 0,0 l/m 0 min 0 min 0 W/m 16,1 km/h (3 Bft) 97,83 %
01.08.2020 03:46 24,4 C 23,3 C 22,8 C 60 % 1012,3 hPa 0,0 l/m 0 min 0 min 0 W/m 12,9 km/h (3 Bft) 100,00 %
01.08.2020 03:48 24,4 C 23,3 C 22,8 C 60 % 1012,3 hPa 0,0 l/m 0 min 0 min 0 W/m 12,9 km/h (3 Bft) 100,00 %
01.08.2020 03:50 24,4 C 23,3 C 22,8 C 60 % 1012,3 hPa 0,0 l/m 0 min 0 min 0 W/m 6,4 km/h (2 Bft) 100,00 %
01.08.2020 03:52 24,4 C 23,3 C 22,8 C 59 % 1012,3 hPa 0,0 l/m 0 min 0 min 0 W/m 6,4 km/h (2 Bft) 97,87 %
01.08.2020 03:54 24,4 C 23,3 C 22,8 C 59 % 1012,2 hPa 0,0 l/m 0 min 0 min 0 W/m 12,9 km/h (3 Bft) 100,00 %
01.08.2020 03:56 24,4 C 23,3 C 22,8 C 59 % 1012,2 hPa 0,0 l/m 0 min 0 min 0 W/m 6,4 km/h (2 Bft) 95,65 %
01.08.2020 03:58 24,4 C 23,9 C 22,8 C 59 % 1012,2 hPa 0,0 l/m 0 min 0 min 0 W/m 16,1 km/h (3 Bft) 95,74 %
01.08.2020 04:00 24,4 C 23,9 C 22,8 C 59 % 1012,2 hPa 0,0 l/m 0 min 0 min 0 W/m 12,9 km/h (3 Bft) 97,87 %
01.08.2020 04:02 24,5 C 23,9 C 22,8 C 59 % 1012,2 hPa 0,0 l/m 0 min 0 min 0 W/m 19,3 km/h (3 Bft) 96,88 %
01.08.2020 04:04 24,5 C 23,9 C 22,8 C 59 % 1012,2 hPa 0,0 l/m 0 min 0 min 0 W/m 12,9 km/h (3 Bft) 98,08 %
01.08.2020 04:06 24,6 C 23,9 C 23,3 C 59 % 1012,2 hPa 0,0 l/m 0 min 0 min 0 W/m 25,7 km/h (4 Bft) 97,83 %
01.08.2020 04:08 24,6 C 23,9 C 23,3 C 59 % 1012,2 hPa 0,0 l/m 0 min 0 min 0 W/m 22,5 km/h (4 Bft) 95,74 %
01.08.2020 04:10 24,6 C 23,9 C 23,3 C 58 % 1012,2 hPa 0,0 l/m 0 min 0 min 0 W/m 16,1 km/h (3 Bft) 95,74 %
01.08.2020 04:12 24,6 C 23,9 C 23,3 C 58 % 1012,2 hPa 0,0 l/m 0 min 0 min 0 W/m 16,1 km/h (3 Bft) 97,87 %
01.08.2020 04:14 24,6 C 23,9 C 23,3 C 58 % 1012,1 hPa 0,0 l/m 0 min 0 min 0 W/m 12,9 km/h (3 Bft) 97,87 %
01.08.2020 04:16 24,6 C 23,9 C 23,3 C 58 % 1012,1 hPa 0,0 l/m 0 min 0 min 0 W/m 22,5 km/h (4 Bft) 95,74 %
01.08.2020 04:18 24,7 C 23,9 C 22,8 C 58 % 1012,1 hPa 0,0 l/m 0 min 0 min 0 W/m 12,9 km/h (3 Bft) 93,48 %
01.08.2020 04:20 24,7 C 23,9 C 22,8 C 58 % 1012,1 hPa 0,0 l/m 0 min 0 min 0 W/m 12,9 km/h (3 Bft) 97,87 %
01.08.2020 04:22 24,7 C 23,9 C 22,8 C 58 % 1012,1 hPa 0,0 l/m 0 min 0 min 0 W/m 22,5 km/h (4 Bft) 97,87 %
01.08.2020 04:24 24,7 C 23,9 C 23,3 C 58 % 1012,1 hPa 0,0 l/m 0 min 0 min 0 W/m 16,1 km/h (3 Bft) 97,87 %
01.08.2020 04:26 24,7 C 23,9 C 23,3 C 58 % 1012,1 hPa 0,0 l/m 0 min 0 min 0 W/m 16,1 km/h (3 Bft) 95,74 %
01.08.2020 04:28 24,7 C 23,9 C 23,3 C 58 % 1012,1 hPa 0,0 l/m 0 min 0 min 0 W/m 16,1 km/h (3 Bft) 95,74 %
01.08.2020 04:30 24,7 C 23,9 C 22,8 C 58 % 1012,1 hPa 0,0 l/m 0 min 0 min 0 W/m 12,9 km/h (3 Bft) 95,65 %
01.08.2020 04:32 24,7 C 23,9 C 23,3 C 58 % 1012,1 hPa 0,0 l/m 0 min 0 min 0 W/m 12,9 km/h (3 Bft) 95,74 %
01.08.2020 04:34 24,7 C 23,9 C 23,3 C 58 % 1012,1 hPa 0,0 l/m 0 min 0 min 0 W/m 16,1 km/h (3 Bft) 93,62 %
01.08.2020 04:36 24,7 C 23,3 C 22,8 C 58 % 1012,1 hPa 0,0 l/m 0 min 0 min 0 W/m 12,9 km/h (3 Bft) 95,74 %
01.08.2020 04:38 24,7 C 23,3 C 22,8 C 58 % 1012,1 hPa 0,0 l/m 0 min 0 min 0 W/m 12,9 km/h (3 Bft) 95,74 %
01.08.2020 04:40 24,7 C 23,3 C 22,8 C 58 % 1012,1 hPa 0,0 l/m 0 min 0 min 0 W/m 12,9 km/h (3 Bft) 95,74 %
01.08.2020 04:42 24,7 C 23,3 C 22,8 C 58 % 1012,0 hPa 0,0 l/m 0 min 0 min 0 W/m 12,9 km/h (3 Bft) 97,83 %
01.08.2020 04:44 24,7 C 23,3 C 22,8 C 59 % 1012,1 hPa 0,0 l/m 0 min 0 min 0 W/m 12,9 km/h (3 Bft) 100,00 %
01.08.2020 04:46 24,7 C 23,3 C 22,8 C 59 % 1012,1 hPa 0,0 l/m 0 min 0 min 0 W/m 12,9 km/h (3 Bft) 97,87 %
01.08.2020 04:48 24,7 C 23,3 C 22,8 C 59 % 1012,1 hPa 0,0 l/m 0 min 0 min 0 W/m 12,9 km/h (3 Bft) 93,62 %
01.08.2020 04:50 24,7 C 23,3 C 22,8 C 59 % 1012,1 hPa 0,0 l/m 0 min 0 min 0 W/m 6,4 km/h (2 Bft) 93,62 %
01.08.2020 04:52 24,7 C 23,3 C 22,8 C 59 % 1012,1 hPa 0,0 l/m 0 min 0 min 0 W/m 12,9 km/h (3 Bft) 95,74 %
01.08.2020 04:54 24,7 C 23,3 C 22,8 C 59 % 1012,1 hPa 0,0 l/m 0 min 0 min 0 W/m 16,1 km/h (3 Bft) 93,48 %
01.08.2020 04:56 24,6 C 23,3 C 22,8 C 59 % 1012,1 hPa 0,0 l/m 0 min 0 min 0 W/m 12,9 km/h (3 Bft) 95,74 %
01.08.2020 04:58 24,6 C 23,3 C 22,8 C 59 % 1012,1 hPa 0,0 l/m 0 min 0 min 0 W/m 16,1 km/h (3 Bft) 95,74 %
01.08.2020 05:00 24,6 C 23,3 C 22,8 C 59 % 1012,3 hPa 0,0 l/m 0 min 0 min 0 W/m 12,9 km/h (3 Bft) 95,74 %
01.08.2020 05:02 24,6 C 23,3 C 22,8 C 59 % 1012,3 hPa 0,0 l/m 0 min 0 min 0 W/m 12,9 km/h (3 Bft) 95,74 %
01.08.2020 05:04 24,6 C 23,3 C 22,8 C 59 % 1012,3 hPa 0,0 l/m 0 min 0 min 0 W/m 12,9 km/h (3 Bft) 95,65 %
01.08.2020 05:06 24,6 C 23,3 C 22,8 C 59 % 1012,4 hPa 0,0 l/m 0 min 0 min 0 W/m 16,1 km/h (3 Bft) 95,74 %
01.08.2020 05:08 24,6 C 23,3 C 22,8 C 59 % 1012,4 hPa 0,0 l/m 0 min 0 min 0 W/m 12,9 km/h (3 Bft) 95,74 %
01.08.2020 05:10 24,6 C 23,3 C 22,8 C 60 % 1012,5 hPa 0,0 l/m 0 min 0 min 0 W/m 16,1 km/h (3 Bft) 95,74 %
01.08.2020 05:12 24,5 C 23,3 C 22,8 C 60 % 1012,5 hPa 0,0 l/m 0 min 0 min 0 W/m 12,9 km/h (3 Bft) 91,49 %
01.08.2020 05:14 24,5 C 22,8 C 22,8 C 60 % 1012,5 hPa 0,0 l/m 0 min 2 min 0 W/m 9,7 km/h (2 Bft) 95,74 %
01.08.2020 05:16 24,4 C 22,8 C 22,2 C 60 % 1012,5 hPa 0,0 l/m 0 min 2 min 0 W/m 6,4 km/h (2 Bft) 95,65 %
01.08.2020 05:18 24,4 C 22,8 C 22,2 C 61 % 1012,6 hPa 0,0 l/m 0 min 0 min 0 W/m 12,9 km/h (3 Bft) 95,74 %
01.08.2020 05:20 24,4 C 22,8 C 22,2 C 61 % 1012,6 hPa 0,0 l/m 0 min 2 min 0 W/m 6,4 km/h (2 Bft) 93,62 %
01.08.2020 05:22 24,4 C 22,8 C 21,7 C 61 % 1012,6 hPa 0,0 l/m 0 min 2 min 0 W/m 3,2 km/h (1 Bft) 95,74 %
01.08.2020 05:24 24,4 C 22,8 C 21,7 C 61 % 1012,6 hPa 0,0 l/m 0 min 0 min 0 W/m 3,2 km/h (1 Bft) 91,49 %
01.08.2020 05:26 24,4 C 22,8 C 21,7 C 61 % 1012,6 hPa 0,0 l/m 0 min 0 min 0 W/m 6,4 km/h (2 Bft) 95,74 %
01.08.2020 05:28 24,3 C 22,8 C 21,7 C 61 % 1012,6 hPa 0,0 l/m 0 min 0 min 0 W/m 6,4 km/h (2 Bft) 93,62 %
01.08.2020 05:30 24,3 C 22,8 C 22,2 C 61 % 1012,7 hPa 0,0 l/m 0 min 0 min 0 W/m 6,4 km/h (2 Bft) 93,48 %
01.08.2020 05:32 24,3 C 22,8 C 22,2 C 61 % 1012,7 hPa 0,0 l/m 0 min 0 min 0 W/m 12,9 km/h (3 Bft) 95,92 %
01.08.2020 05:34 24,3 C 22,8 C 22,2 C 61 % 1012,8 hPa 0,0 l/m 0 min 0 min 0 W/m 6,4 km/h (2 Bft) 97,87 %
01.08.2020 05:36 24,3 C 22,8 C 22,2 C 61 % 1012,8 hPa 0,0 l/m 0 min 0 min 0 W/m 6,4 km/h (2 Bft) 97,87 %
01.08.2020 05:38 24,2 C 22,8 C 22,2 C 61 % 1012,8 hPa 0,0 l/m 0 min 0 min 0 W/m 3,2 km/h (1 Bft) 95,74 %
01.08.2020 05:40 24,2 C 22,8 C 22,2 C 61 % 1012,8 hPa 0,0 l/m 0 min 0 min 0 W/m 3,2 km/h (1 Bft) 95,65 %
01.08.2020 05:42 24,2 C 22,8 C 22,2 C 62 % 1012,9 hPa 0,0 l/m 0 min 0 min 0 W/m 3,2 km/h (1 Bft) 100,00 %
01.08.2020 05:44 24,2 C 22,8 C 21,7 C 62 % 1012,9 hPa 0,0 l/m 0 min 0 min 0 W/m 3,2 km/h (1 Bft) 100,00 %
01.08.2020 05:46 24,2 C 22,8 C 21,7 C 62 % 1012,9 hPa 0,0 l/m 0 min 0 min 0 W/m 3,2 km/h (1 Bft) 100,00 %
01.08.2020 05:48 24,2 C 22,8 C 21,7 C 63 % 1012,9 hPa 0,0 l/m 0 min 0 min 0 W/m 3,2 km/h (1 Bft) 97,87 %
01.08.2020 05:50 24,2 C 22,8 C 21,7 C 63 % 1012,8 hPa 0,0 l/m 0 min 0 min 0 W/m 3,2 km/h (1 Bft) 97,83 %
01.08.2020 05:52 24,1 C 22,2 C 21,7 C 64 % 1012,8 hPa 0,0 l/m 0 min 0 min 0 W/m 0,0 km/h (0 Bft) 100,00 %
01.08.2020 05:54 24,1 C 22,2 C 21,7 C 64 % 1012,7 hPa 0,0 l/m 0 min 0 min 0 W/m 3,2 km/h (1 Bft) 100,00 %
01.08.2020 05:56 24,1 C 22,2 C 21,7 C 65 % 1012,8 hPa 0,0 l/m 0 min 0 min 0 W/m 0,0 km/h (0 Bft) 100,00 %
01.08.2020 05:58 24,1 C 22,2 C 21,7 C 65 % 1012,7 hPa 0,0 l/m 0 min 0 min 0 W/m 0,0 km/h (0 Bft) 97,87 %
01.08.2020 06:00 24,1 C 22,2 C 21,1 C 65 % 1012,6 hPa 0,0 l/m 0 min 0 min 0 W/m 0,0 km/h (0 Bft) 100,00 %
01.08.2020 06:02 24,1 C 22,2 C 21,1 C 66 % 1012,6 hPa 0,0 l/m 0 min 0 min 0 W/m 0,0 km/h (0 Bft) 100,00 %
01.08.2020 06:04 24,0 C 21,7 C 21,1 C 67 % 1012,5 hPa 0,0 l/m 0 min 0 min 0 W/m 0,0 km/h (0 Bft) 97,83 %
01.08.2020 06:08 24,0 C 21,1 C 20,6 C 67 % 1012,5 hPa 0,0 l/m 0 min 0 min 0 W/m 0,0 km/h (0 Bft) 100,00 %
01.08.2020 06:10 23,9 C 21,1 C 20,6 C 67 % 1012,5 hPa 0,0 l/m 0 min 0 min 0 W/m 0,0 km/h (0 Bft) 100,00 %
01.08.2020 06:12 23,9 C 21,1 C 20,0 C 67 % 1012,6 hPa 0,0 l/m 0 min 2 min 0 W/m 3,2 km/h (1 Bft) 100,00 %
01.08.2020 06:14 23,9 C 21,1 C 20,0 C 67 % 1012,6 hPa 0,0 l/m 0 min 2 min 0 W/m 3,2 km/h (1 Bft) 100,00 %
01.08.2020 06:16 23,8 C 21,1 C 20,0 C 67 % 1012,6 hPa 0,0 l/m 0 min 0 min 0 W/m 3,2 km/h (1 Bft) 100,00 %
01.08.2020 06:18 23,8 C 20,6 C 19,4 C 68 % 1012,6 hPa 0,0 l/m 0 min 2 min 0 W/m 0,0 km/h (0 Bft) 97,87 %
01.08.2020 06:20 23,8 C 20,6 C 19,4 C 69 % 1012,6 hPa 0,0 l/m 0 min 0 min 0 W/m 0,0 km/h (0 Bft) 100,00 %
01.08.2020 06:22 23,8 C 20,6 C 19,4 C 70 % 1012,7 hPa 0,0 l/m 0 min 2 min 0 W/m 0,0 km/h (0 Bft) 100,00 %
01.08.2020 06:24 23,7 C 20,6 C 19,4 C 70 % 1012,8 hPa 0,0 l/m 0 min 0 min 5 W/m 6,4 km/h (2 Bft) 100,00 %
01.08.2020 06:26 23,7 C 20,6 C 19,4 C 70 % 1012,7 hPa 0,0 l/m 0 min 0 min 5 W/m 3,2 km/h (1 Bft) 100,00 %
01.08.2020 06:28 23,6 C 20,6 C 19,4 C 71 % 1012,7 hPa 0,0 l/m 0 min 0 min 6 W/m 0,0 km/h (0 Bft) 97,83 %
01.08.2020 06:30 23,6 C 21,1 C 20,0 C 71 % 1012,7 hPa 0,0 l/m 0 min 0 min 7 W/m 0,0 km/h (0 Bft) 97,87 %
01.08.2020 06:32 23,6 C 20,6 C 20,0 C 71 % 1012,7 hPa 0,0 l/m 0 min 0 min 7 W/m 0,0 km/h (0 Bft) 97,92 %
01.08.2020 06:34 23,5 C 20,6 C 20,0 C 72 % 1012,7 hPa 0,0 l/m 0 min 0 min 7 W/m 0,0 km/h (0 Bft) 97,87 %
01.08.2020 06:36 23,4 C 21,1 C 20,0 C 72 % 1012,8 hPa 0,0 l/m 0 min 0 min 7 W/m 0,0 km/h (0 Bft) 97,87 %
01.08.2020 06:38 23,4 C 21,1 C 20,0 C 72 % 1012,8 hPa 0,0 l/m 0 min 0 min 7 W/m 0,0 km/h (0 Bft) 95,74 %
01.08.2020 06:40 23,4 C 21,1 C 20,0 C 72 % 1012,9 hPa 0,0 l/m 0 min 0 min 7 W/m 3,2 km/h (1 Bft) 97,83 %
01.08.2020 06:42 23,3 C 21,1 C 20,0 C 72 % 1012,9 hPa 0,0 l/m 0 min 0 min 8 W/m 0,0 km/h (0 Bft) 95,74 %
01.08.2020 06:44 23,3 C 21,1 C 20,0 C 72 % 1012,9 hPa 0,0 l/m 0 min 0 min 9 W/m 0,0 km/h (0 Bft) 95,74 %
01.08.2020 06:46 23,2 C 21,1 C 20,0 C 73 % 1013,0 hPa 0,0 l/m 0 min 0 min 9 W/m 0,0 km/h (0 Bft) 97,87 %
01.08.2020 06:48 23,2 C 21,1 C 20,0 C 73 % 1013,0 hPa 0,0 l/m 0 min 0 min 10 W/m 3,2 km/h (1 Bft) 97,87 %
01.08.2020 06:50 23,2 C 21,1 C 20,0 C 72 % 1013,1 hPa 0,0 l/m 0 min 0 min 11 W/m 3,2 km/h (1 Bft) 97,87 %
01.08.2020 06:52 23,1 C 21,1 C 20,0 C 73 % 1013,1 hPa 0,0 l/m 0 min 0 min 12 W/m 0,0 km/h (0 Bft) 97,83 %
01.08.2020 06:54 23,1 C 21,1 C 20,0 C 73 % 1013,2 hPa 0,0 l/m 0 min 0 min 14 W/m 0,0 km/h (0 Bft) 97,87 %
01.08.2020 06:56 23,1 C 21,7 C 20,0 C 72 % 1013,3 hPa 0,0 l/m 0 min 0 min 15 W/m 3,2 km/h (1 Bft) 95,74 %
01.08.2020 06:58 23,0 C 21,7 C 20,6 C 72 % 1013,3 hPa 0,0 l/m 0 min 0 min 18 W/m 6,4 km/h (2 Bft) 97,87 %
01.08.2020 07:00 22,9 C 21,7 C 20,6 C 72 % 1013,3 hPa 0,0 l/m 0 min 0 min 19 W/m 3,2 km/h (1 Bft) 97,87 %
01.08.2020 07:02 22,9 C 21,7 C 20,6 C 72 % 1013,3 hPa 0,0 l/m 0 min 0 min 20 W/m 3,2 km/h (1 Bft) 95,83 %
01.08.2020 07:04 22,9 C 21,7 C 20,6 C 72 % 1013,3 hPa 0,0 l/m 0 min 0 min 22 W/m 6,4 km/h (2 Bft) 97,87 %
01.08.2020 07:06 22,8 C 21,7 C 20,6 C 72 % 1013,3 hPa 0,0 l/m 0 min 0 min 23 W/m 3,2 km/h (1 Bft) 95,74 %
01.08.2020 07:08 22,8 C 21,7 C 20,6 C 72 % 1013,4 hPa 0,0 l/m 0 min 0 min 24 W/m 3,2 km/h (1 Bft) 97,87 %
01.08.2020 07:10 22,8 C 21,7 C 21,1 C 73 % 1013,4 hPa 0,0 l/m 0 min 0 min 25 W/m 3,2 km/h (1 Bft) 95,74 %
01.08.2020 07:12 22,8 C 21,7 C 21,1 C 73 % 1013,3 hPa 0,0 l/m 0 min 0 min 25 W/m 3,2 km/h (1 Bft) 93,62 %
01.08.2020 07:14 22,8 C 21,7 C 21,1 C 73 % 1013,3 hPa 0,0 l/m 0 min 0 min 25 W/m 6,4 km/h (2 Bft) 97,83 %
01.08.2020 07:16 22,8 C 21,7 C 21,1 C 73 % 1013,3 hPa 0,0 l/m 0 min 0 min 26 W/m 3,2 km/h (1 Bft) 97,87 %
01.08.2020 07:18 22,8 C 21,7 C 21,1 C 73 % 1013,3 hPa 0,0 l/m 0 min 0 min 26 W/m 0,0 km/h (0 Bft) 100,00 %
01.08.2020 07:20 22,8 C 21,7 C 21,1 C 74 % 1013,3 hPa 0,0 l/m 0 min 0 min 26 W/m 0,0 km/h (0 Bft) 100,00 %
01.08.2020 07:22 22,8 C 21,7 C 20,6 C 74 % 1013,3 hPa 0,0 l/m 0 min 0 min 27 W/m 3,2 km/h (1 Bft) 93,62 %
01.08.2020 07:24 22,8 C 21,7 C 20,6 C 74 % 1013,2 hPa 0,0 l/m 0 min 0 min 29 W/m 0,0 km/h (0 Bft) 100,00 %
01.08.2020 07:26 22,8 C 21,7 C 20,6 C 74 % 1013,2 hPa 0,0 l/m 0 min 0 min 32 W/m 0,0 km/h (0 Bft) 97,87 %
01.08.2020 07:28 22,8 C 22,2 C 20,6 C 75 % 1013,2 hPa 0,0 l/m 0 min 0 min 36 W/m 3,2 km/h (1 Bft) 100,00 %
01.08.2020 07:30 22,8 C 22,2 C 20,6 C 75 % 1013,2 hPa 0,0 l/m 0 min 0 min 40 W/m 0,0 km/h (0 Bft) 100,00 %
01.08.2020 07:32 22,8 C 22,2 C 21,1 C 75 % 1013,2 hPa 0,0 l/m 0 min 0 min 46 W/m 0,0 km/h (0 Bft) 96,00 %
01.08.2020 07:34 22,8 C 22,2 C 21,1 C 75 % 1013,1 hPa 0,0 l/m 0 min 0 min 53 W/m 0,0 km/h (0 Bft) 97,96 %
01.08.2020 07:36 22,8 C 22,2 C 21,1 C 75 % 1013,1 hPa 0,0 l/m 0 min 0 min 55 W/m 0,0 km/h (0 Bft) 97,83 %
01.08.2020 07:38 22,8 C 22,2 C 21,1 C 76 % 1013,0 hPa 0,0 l/m 0 min 0 min 56 W/m 0,0 km/h (0 Bft) 97,67 %
01.08.2020 07:40 22,8 C 22,8 C 21,1 C 76 % 1013,1 hPa 0,0 l/m 0 min 0 min 56 W/m 0,0 km/h (0 Bft) 95,92 %
01.08.2020 07:42 22,8 C 22,8 C 21,1 C 76 % 1013,1 hPa 0,0 l/m 0 min 0 min 58 W/m 3,2 km/h (1 Bft) 95,92 %
01.08.2020 07:44 22,8 C 22,8 C 21,1 C 76 % 1013,0 hPa 0,0 l/m 0 min 0 min 60 W/m 3,2 km/h (1 Bft) 97,87 %
01.08.2020 07:46 22,8 C 22,8 C 21,7 C 76 % 1013,0 hPa 0,0 l/m 0 min 0 min 68 W/m 3,2 km/h (1 Bft) 97,87 %
01.08.2020 07:48 22,8 C 22,8 C 21,7 C 76 % 1013,0 hPa 0,0 l/m 0 min 0 min 72 W/m 3,2 km/h (1 Bft) 98,08 %
01.08.2020 07:50 22,8 C 23,3 C 21,7 C 76 % 1013,0 hPa 0,0 l/m 0 min 0 min 78 W/m 3,2 km/h (1 Bft) 97,37 %
01.08.2020 07:52 22,8 C 23,3 C 21,7 C 77 % 1013,0 hPa 0,0 l/m 0 min 0 min 89 W/m 0,0 km/h (0 Bft) 98,00 %
01.08.2020 07:54 22,9 C 23,3 C 21,7 C 77 % 1013,0 hPa 0,0 l/m 0 min 0 min 97 W/m 0,0 km/h (0 Bft) 97,87 %
01.08.2020 07:56 22,9 C 23,9 C 22,2 C 77 % 1013,0 hPa 0,0 l/m 0 min 0 min 106 W/m 3,2 km/h (1 Bft) 98,11 %
01.08.2020 07:58 23,0 C 23,9 C 22,2 C 78 % 1013,1 hPa 0,0 l/m 0 min 0 min 111 W/m 3,2 km/h (1 Bft) 97,37 %
01.08.2020 08:00 23,0 C 23,9 C 22,2 C 78 % 1013,1 hPa 0,0 l/m 0 min 0 min 104 W/m 3,2 km/h (1 Bft) 97,96 %
01.08.2020 08:02 23,1 C 23,9 C 22,2 C 78 % 1013,2 hPa 0,0 l/m 0 min 0 min 95 W/m 6,4 km/h (2 Bft) 95,24 %
01.08.2020 08:04 23,1 C 23,9 C 22,2 C 78 % 1013,2 hPa 0,0 l/m 0 min 0 min 90 W/m 3,2 km/h (1 Bft) 98,00 %
01.08.2020 08:06 23,1 C 23,9 C 22,2 C 78 % 1013,2 hPa 0,0 l/m 0 min 0 min 83 W/m 3,2 km/h (1 Bft) 97,30 %
01.08.2020 08:08 23,2 C 23,9 C 22,8 C 78 % 1013,2 hPa 0,0 l/m 0 min 0 min 83 W/m 6,4 km/h (2 Bft) 95,38 %
01.08.2020 08:10 23,2 C 23,9 C 22,8 C 78 % 1013,2 hPa 0,0 l/m 0 min 0 min 85 W/m 6,4 km/h (2 Bft) 94,59 %
01.08.2020 08:12 23,3 C 23,9 C 22,8 C 78 % 1013,2 hPa 0,0 l/m 0 min 0 min 88 W/m 6,4 km/h (2 Bft) 95,92 %
01.08.2020 08:14 23,3 C 23,9 C 22,8 C 78 % 1013,2 hPa 0,0 l/m 0 min 0 min 90 W/m 3,2 km/h (1 Bft) 95,83 %
01.08.2020 08:16 23,4 C 23,9 C 22,8 C 78 % 1013,2 hPa 0,0 l/m 0 min 0 min 98 W/m 9,7 km/h (2 Bft) 95,74 %
01.08.2020 08:18 23,4 C 23,9 C 22,8 C 78 % 1013,2 hPa 0,0 l/m 0 min 0 min 100 W/m 3,2 km/h (1 Bft) 95,74 %
01.08.2020 08:20 23,5 C 23,9 C 22,8 C 78 % 1013,1 hPa 0,0 l/m 0 min 0 min 101 W/m 3,2 km/h (1 Bft) 95,74 %
01.08.2020 08:22 23,6 C 23,9 C 22,8 C 78 % 1013,1 hPa 0,0 l/m 0 min 0 min 104 W/m 6,4 km/h (2 Bft) 95,56 %
01.08.2020 08:24 23,6 C 24,4 C 22,8 C 78 % 1013,1 hPa 0,0 l/m 0 min 0 min 106 W/m 3,2 km/h (1 Bft) 95,74 %
01.08.2020 08:26 23,7 C 24,4 C 23,3 C 78 % 1013,1 hPa 0,0 l/m 0 min 0 min 114 W/m 3,2 km/h (1 Bft) 97,92 %
01.08.2020 08:28 23,7 C 25,0 C 23,3 C 78 % 1013,1 hPa 0,0 l/m 0 min 0 min 121 W/m 3,2 km/h (1 Bft) 97,87 %
01.08.2020 08:30 23,7 C 25,0 C 23,3 C 78 % 1013,2 hPa 0,0 l/m 0 min 0 min 126 W/m 6,4 km/h (2 Bft) 98,11 %
01.08.2020 08:32 23,8 C 25,0 C 23,3 C 78 % 1013,2 hPa 0,0 l/m 0 min 0 min 132 W/m 3,2 km/h (1 Bft) 100,00 %
01.08.2020 08:34 23,8 C 26,1 C 23,3 C 79 % 1013,2 hPa 0,0 l/m 0 min 0 min 139 W/m 3,2 km/h (1 Bft) 95,74 %
01.08.2020 08:36 23,9 C 26,7 C 23,9 C 79 % 1013,3 hPa 0,0 l/m 0 min 0 min 155 W/m 3,2 km/h (1 Bft) 97,87 %
01.08.2020 08:38 24,0 C 27,2 C 23,9 C 78 % 1013,3 hPa 0,0 l/m 0 min 0 min 156 W/m 3,2 km/h (1 Bft) 96,23 %
01.08.2020 08:40 24,1 C 27,8 C 23,9 C 78 % 1013,3 hPa 0,0 l/m 0 min 0 min 174 W/m 6,4 km/h (2 Bft) 100,00 %
01.08.2020 08:42 24,2 C 28,9 C 24,4 C 78 % 1013,3 hPa 0,0 l/m 2 min 0 min 211 W/m 3,2 km/h (1 Bft) 98,00 %
01.08.2020 08:44 24,3 C 28,9 C 24,4 C 78 % 1013,3 hPa 0,0 l/m 2 min 0 min 205 W/m 3,2 km/h (1 Bft) 95,83 %
01.08.2020 08:46 24,4 C 27,8 C 24,4 C 78 % 1013,3 hPa 0,0 l/m 0 min 0 min 180 W/m 9,7 km/h (2 Bft) 98,08 %
01.08.2020 08:48 24,6 C 27,8 C 24,4 C 77 % 1013,3 hPa 0,0 l/m 2 min 0 min 234 W/m 6,4 km/h (2 Bft) 97,37 %
01.08.2020 08:50 24,7 C 28,3 C 25,0 C 76 % 1013,3 hPa 0,0 l/m 2 min 0 min 283 W/m 6,4 km/h (2 Bft) 98,00 %
01.08.2020 08:52 24,8 C 28,3 C 25,0 C 76 % 1013,3 hPa 0,0 l/m 2 min 0 min 286 W/m 6,4 km/h (2 Bft) 97,87 %
01.08.2020 08:54 25,0 C 27,8 C 25,0 C 75 % 1013,3 hPa 0,0 l/m 2 min 0 min 258 W/m 6,4 km/h (2 Bft) 97,67 %
01.08.2020 08:56 25,1 C 27,2 C 25,0 C 75 % 1013,3 hPa 0,0 l/m 0 min 0 min 174 W/m 6,4 km/h (2 Bft) 97,96 %
01.08.2020 08:58 25,2 C 26,7 C 25,0 C 74 % 1013,3 hPa 0,0 l/m 0 min 0 min 142 W/m 6,4 km/h (2 Bft) 97,92 %
01.08.2020 09:00 25,3 C 26,1 C 24,4 C 74 % 1013,3 hPa 0,0 l/m 0 min 0 min 135 W/m 6,4 km/h (2 Bft) 97,87 %
01.08.2020 09:02 25,3 C 25,6 C 24,4 C 74 % 1013,3 hPa 0,0 l/m 0 min 0 min 132 W/m 6,4 km/h (2 Bft) 97,62 %
01.08.2020 09:04 25,4 C 25,6 C 24,4 C 74 % 1013,3 hPa 0,0 l/m 0 min 0 min 127 W/m 6,4 km/h (2 Bft) 100,00 %
01.08.2020 09:06 25,4 C 25,0 C 24,4 C 74 % 1013,3 hPa 0,0 l/m 0 min 0 min 127 W/m 6,4 km/h (2 Bft) 96,00 %
01.08.2020 09:08 25,5 C 25,0 C 23,9 C 73 % 1013,3 hPa 0,0 l/m 0 min 0 min 125 W/m 6,4 km/h (2 Bft) 97,87 %
01.08.2020 09:10 25,5 C 25,0 C 23,9 C 73 % 1013,3 hPa 0,0 l/m 0 min 0 min 125 W/m 3,2 km/h (1 Bft) 97,62 %
01.08.2020 09:12 25,6 C 25,0 C 23,9 C 73 % 1013,3 hPa 0,0 l/m 0 min 0 min 126 W/m 3,2 km/h (1 Bft) 95,92 %
01.08.2020 09:14 25,6 C 25,0 C 23,9 C 73 % 1013,4 hPa 0,0 l/m 0 min 0 min 128 W/m 6,4 km/h (2 Bft) 95,92 %
01.08.2020 09:16 25,6 C 25,0 C 23,9 C 73 % 1013,4 hPa 0,0 l/m 0 min 0 min 126 W/m 6,4 km/h (2 Bft) 97,87 %
01.08.2020 09:18 25,6 C 25,0 C 23,9 C 73 % 1013,4 hPa 0,0 l/m 0 min 0 min 116 W/m 3,2 km/h (1 Bft) 97,87 %
01.08.2020 09:20 25,6 C 25,0 C 23,9 C 73 % 1013,5 hPa 0,0 l/m 0 min 0 min 102 W/m 6,4 km/h (2 Bft) 97,62 %
01.08.2020 09:22 25,6 C 24,4 C 23,9 C 73 % 1013,6 hPa 0,0 l/m 0 min 0 min 90 W/m 6,4 km/h (2 Bft) 95,92 %
01.08.2020 09:24 25,5 C 24,4 C 23,9 C 72 % 1013,7 hPa 0,0 l/m 0 min 0 min 79 W/m 6,4 km/h (2 Bft) 97,96 %
01.08.2020 09:26 25,4 C 23,9 C 23,3 C 72 % 1013,7 hPa 0,0 l/m 0 min 0 min 76 W/m 9,7 km/h (2 Bft) 95,12 %
01.08.2020 09:28 25,4 C 23,9 C 23,3 C 72 % 1013,8 hPa 0,0 l/m 0 min 0 min 74 W/m 6,4 km/h (2 Bft) 98,11 %
01.08.2020 09:30 25,4 C 23,9 C 23,3 C 72 % 1014,0 hPa 0,0 l/m 0 min 0 min 70 W/m 6,4 km/h (2 Bft) 95,74 %
01.08.2020 09:32 25,4 C 23,9 C 23,3 C 72 % 1014,3 hPa 0,0 l/m 0 min 0 min 71 W/m 12,9 km/h (3 Bft) 97,67 %
01.08.2020 09:34 25,3 C 23,9 C 23,3 C 72 % 1014,4 hPa 0,0 l/m 0 min 0 min 76 W/m 9,7 km/h (2 Bft) 97,92 %
01.08.2020 09:36 25,3 C 23,9 C 23,3 C 72 % 1014,6 hPa 0,0 l/m 0 min 0 min 82 W/m 19,3 km/h (3 Bft) 97,96 %
01.08.2020 09:38 25,2 C 23,9 C 23,3 C 72 % 1014,7 hPa 0,0 l/m 0 min 0 min 89 W/m 16,1 km/h (3 Bft) 97,87 %
01.08.2020 09:40 25,2 C 23,9 C 23,3 C 73 % 1014,7 hPa 0,0 l/m 0 min 0 min 93 W/m 16,1 km/h (3 Bft) 97,67 %
01.08.2020 09:42 25,2 C 23,9 C 23,3 C 73 % 1014,7 hPa 0,0 l/m 0 min 0 min 95 W/m 22,5 km/h (4 Bft) 98,00 %
01.08.2020 09:44 25,2 C 24,4 C 23,9 C 73 % 1014,8 hPa 0,0 l/m 0 min 0 min 97 W/m 19,3 km/h (3 Bft) 97,87 %
01.08.2020 09:46 25,1 C 24,4 C 23,9 C 74 % 1014,8 hPa 0,0 l/m 0 min 0 min 102 W/m 16,1 km/h (3 Bft) 95,65 %
01.08.2020 09:48 25,1 C 24,4 C 23,9 C 74 % 1014,8 hPa 0,0 l/m 0 min 0 min 115 W/m 16,1 km/h (3 Bft) 97,87 %
01.08.2020 09:50 25,1 C 24,4 C 23,9 C 74 % 1014,8 hPa 0,0 l/m 0 min 0 min 132 W/m 16,1 km/h (3 Bft) 100,00 %
01.08.2020 09:52 25,1 C 25,0 C 23,9 C 74 % 1014,8 hPa 0,0 l/m 0 min 0 min 148 W/m 16,1 km/h (3 Bft) 97,87 %
01.08.2020 09:54 25,1 C 25,0 C 23,9 C 74 % 1014,8 hPa 0,0 l/m 0 min 0 min 166 W/m 32,2 km/h (5 Bft) 95,74 %
01.08.2020 09:56 25,1 C 25,0 C 23,9 C 74 % 1014,8 hPa 0,0 l/m 0 min 0 min 186 W/m 22,5 km/h (4 Bft) 100,00 %
01.08.2020 09:58 25,2 C 25,0 C 24,4 C 74 % 1014,7 hPa 0,0 l/m 0 min 0 min 209 W/m 22,5 km/h (4 Bft) 100,00 %
01.08.2020 10:00 25,2 C 25,6 C 24,4 C 74 % 1014,7 hPa 0,0 l/m 0 min 0 min 232 W/m 25,7 km/h (4 Bft) 100,00 %
01.08.2020 10:02 25,2 C 25,6 C 24,4 C 74 % 1014,8 hPa 0,0 l/m 0 min 0 min 250 W/m 25,7 km/h (4 Bft) 97,87 %
01.08.2020 10:04 25,2 C 25,6 C 24,4 C 74 % 1014,8 hPa 0,0 l/m 0 min 0 min 260 W/m 16,1 km/h (3 Bft) 97,87 %
01.08.2020 10:06 25,2 C 25,6 C 25,0 C 74 % 1014,7 hPa 0,0 l/m 0 min 0 min 265 W/m 25,7 km/h (4 Bft) 97,87 %
01.08.2020 10:08 25,2 C 25,6 C 25,0 C 74 % 1014,7 hPa 0,0 l/m 0 min 0 min 267 W/m 22,5 km/h (4 Bft) 100,00 %
01.08.2020 10:10 25,2 C 25,6 C 25,0 C 73 % 1014,7 hPa 0,0 l/m 0 min 0 min 270 W/m 25,7 km/h (4 Bft) 100,00 %
01.08.2020 10:12 25,3 C 25,6 C 25,0 C 73 % 1014,7 hPa 0,0 l/m 0 min 0 min 272 W/m 38,6 km/h (5 Bft) 97,87 %
01.08.2020 10:14 25,3 C 25,6 C 25,0 C 73 % 1014,6 hPa 0,0 l/m 0 min 0 min 268 W/m 25,7 km/h (4 Bft) 100,00 %
01.08.2020 10:16 25,3 C 26,1 C 25,0 C 73 % 1014,6 hPa 0,0 l/m 0 min 0 min 279 W/m 22,5 km/h (4 Bft) 100,00 %
01.08.2020 10:18 25,4 C 26,1 C 25,6 C 72 % 1014,5 hPa 0,0 l/m 0 min 0 min 290 W/m 35,4 km/h (5 Bft) 97,87 %
01.08.2020 10:20 25,4 C 26,1 C 25,6 C 72 % 1014,4 hPa 0,0 l/m 0 min 0 min 286 W/m 16,1 km/h (3 Bft) 100,00 %
01.08.2020 10:22 25,4 C 26,7 C 26,1 C 72 % 1014,4 hPa 0,0 l/m 2 min 0 min 315 W/m 19,3 km/h (3 Bft) 100,00 %
01.08.2020 10:24 25,5 C 26,7 C 26,1 C 72 % 1014,4 hPa 0,0 l/m 2 min 0 min 315 W/m 19,3 km/h (3 Bft) 100,00 %
01.08.2020 10:26 25,6 C 26,7 C 26,1 C 71 % 1014,4 hPa 0,0 l/m 0 min 0 min 288 W/m 25,7 km/h (4 Bft) 97,87 %
01.08.2020 10:28 25,6 C 26,7 C 26,1 C 71 % 1014,3 hPa 0,0 l/m 0 min 0 min 263 W/m 12,9 km/h (3 Bft) 97,87 %
01.08.2020 10:30 25,7 C 26,7 C 26,1 C 71 % 1014,3 hPa 0,0 l/m 0 min 0 min 242 W/m 6,4 km/h (2 Bft) 100,00 %
01.08.2020 10:32 25,7 C 26,7 C 25,6 C 71 % 1014,3 hPa 0,0 l/m 0 min 0 min 238 W/m 6,4 km/h (2 Bft) 98,08 %
01.08.2020 10:34 25,8 C 26,1 C 25,6 C 71 % 1014,4 hPa 0,0 l/m 0 min 0 min 234 W/m 9,7 km/h (2 Bft) 100,00 %
01.08.2020 10:36 25,8 C 26,1 C 25,6 C 72 % 1014,3 hPa 0,0 l/m 0 min 0 min 244 W/m 12,9 km/h (3 Bft) 97,87 %
01.08.2020 10:38 25,8 C 26,7 C 26,1 C 72 % 1014,2 hPa 0,0 l/m 0 min 0 min 246 W/m 6,4 km/h (2 Bft) 97,22 %
01.08.2020 10:40 25,9 C 26,7 C 25,6 C 72 % 1014,2 hPa 0,0 l/m 0 min 0 min 226 W/m 9,7 km/h (2 Bft) 97,87 %
01.08.2020 10:42 25,9 C 26,7 C 25,6 C 71 % 1014,3 hPa 0,0 l/m 0 min 0 min 211 W/m 16,1 km/h (3 Bft) 100,00 %
01.08.2020 10:44 25,9 C 26,1 C 25,6 C 71 % 1014,3 hPa 0,0 l/m 0 min 0 min 208 W/m 12,9 km/h (3 Bft) 100,00 %
01.08.2020 10:46 25,9 C 26,1 C 25,6 C 70 % 1014,3 hPa 0,0 l/m 0 min 0 min 213 W/m 19,3 km/h (3 Bft) 97,87 %
01.08.2020 10:48 25,9 C 26,1 C 25,6 C 71 % 1014,3 hPa 0,0 l/m 0 min 0 min 209 W/m 9,7 km/h (2 Bft) 97,96 %
01.08.2020 10:50 25,9 C 26,1 C 25,0 C 70 % 1014,4 hPa 0,0 l/m 0 min 0 min 206 W/m 16,1 km/h (3 Bft) 97,87 %
01.08.2020 10:52 25,9 C 26,1 C 25,0 C 70 % 1014,3 hPa 0,0 l/m 0 min 0 min 208 W/m 12,9 km/h (3 Bft) 97,87 %
01.08.2020 10:54 25,9 C 26,1 C 25,6 C 71 % 1014,4 hPa 0,0 l/m 0 min 0 min 214 W/m 9,7 km/h (2 Bft) 97,87 %
01.08.2020 10:56 25,9 C 26,1 C 25,0 C 71 % 1014,5 hPa 0,0 l/m 0 min 0 min 217 W/m 16,1 km/h (3 Bft) 93,48 %
01.08.2020 10:58 25,9 C 26,1 C 25,0 C 70 % 1014,5 hPa 0,0 l/m 0 min 0 min 225 W/m 12,9 km/h (3 Bft) 97,87 %
01.08.2020 11:00 25,9 C 26,1 C 25,6 C 71 % 1014,6 hPa 0,0 l/m 0 min 0 min 235 W/m 6,4 km/h (2 Bft) 97,87 %
01.08.2020 11:02 25,9 C 26,1 C 25,6 C 71 % 1014,6 hPa 0,0 l/m 0 min 0 min 241 W/m 6,4 km/h (2 Bft) 97,96 %
01.08.2020 11:04 25,9 C 26,7 C 25,6 C 71 % 1014,6 hPa 0,0 l/m 0 min 0 min 246 W/m 6,4 km/h (2 Bft) 97,87 %
01.08.2020 11:06 25,9 C 26,7 C 25,6 C 71 % 1014,6 hPa 0,0 l/m 0 min 0 min 244 W/m 12,9 km/h (3 Bft) 95,65 %
01.08.2020 11:08 25,9 C 26,1 C 25,6 C 70 % 1014,6 hPa 0,0 l/m 0 min 0 min 250 W/m 12,9 km/h (3 Bft) 95,74 %
01.08.2020 11:10 26,0 C 26,7 C 25,6 C 71 % 1014,6 hPa 0,0 l/m 0 min 0 min 260 W/m 12,9 km/h (3 Bft) 97,87 %
01.08.2020 11:12 26,0 C 26,1 C 25,6 C 71 % 1014,7 hPa 0,0 l/m 0 min 0 min 266 W/m 12,9 km/h (3 Bft) 97,87 %
01.08.2020 11:14 26,0 C 26,7 C 25,6 C 71 % 1014,7 hPa 0,0 l/m 0 min 0 min 264 W/m 9,7 km/h (2 Bft) 97,78 %
01.08.2020 11:16 26,1 C 26,7 C 25,6 C 71 % 1014,6 hPa 0,0 l/m 0 min 0 min 269 W/m 9,7 km/h (2 Bft) 97,87 %
01.08.2020 11:18 26,1 C 27,2 C 25,6 C 71 % 1014,7 hPa 0,0 l/m 0 min 0 min 280 W/m 12,9 km/h (3 Bft) 95,74 %
01.08.2020 11:20 26,1 C 27,2 C 26,1 C 71 % 1014,7 hPa 0,0 l/m 0 min 0 min 272 W/m 6,4 km/h (2 Bft) 93,48 %
01.08.2020 11:22 26,1 C 26,7 C 25,6 C 70 % 1014,7 hPa 0,0 l/m 0 min 0 min 262 W/m 12,9 km/h (3 Bft) 95,74 %
01.08.2020 11:24 26,1 C 26,7 C 25,6 C 70 % 1014,7 hPa 0,0 l/m 0 min 0 min 252 W/m 9,7 km/h (2 Bft) 95,74 %
01.08.2020 11:26 26,1 C 26,7 C 25,6 C 69 % 1014,7 hPa 0,0 l/m 0 min 0 min 248 W/m 16,1 km/h (3 Bft) 91,84 %
01.08.2020 11:28 26,2 C 26,7 C 25,6 C 70 % 1014,7 hPa 0,0 l/m 0 min 0 min 251 W/m 6,4 km/h (2 Bft) 95,74 %
01.08.2020 11:30 26,2 C 26,7 C 25,6 C 70 % 1014,7 hPa 0,0 l/m 0 min 0 min 265 W/m 6,4 km/h (2 Bft) 95,65 %
01.08.2020 11:32 26,2 C 26,7 C 25,6 C 69 % 1014,7 hPa 0,0 l/m 0 min 0 min 281 W/m 6,4 km/h (2 Bft) 95,74 %
01.08.2020 11:34 26,2 C 27,2 C 25,6 C 69 % 1014,6 hPa 0,0 l/m 0 min 0 min 310 W/m 3,2 km/h (1 Bft) 95,74 %
01.08.2020 11:36 26,2 C 27,8 C 26,1 C 70 % 1014,7 hPa 0,0 l/m 0 min 0 min 336 W/m 9,7 km/h (2 Bft) 93,62 %
01.08.2020 11:38 26,3 C 27,8 C 26,1 C 71 % 1014,7 hPa 0,0 l/m 0 min 0 min 332 W/m 6,4 km/h (2 Bft) 93,62 %
01.08.2020 11:40 26,3 C 27,8 C 26,1 C 71 % 1014,6 hPa 0,0 l/m 0 min 0 min 338 W/m 6,4 km/h (2 Bft) 87,23 %
01.08.2020 11:42 26,3 C 28,3 C 26,7 C 71 % 1014,6 hPa 0,0 l/m 0 min 0 min 350 W/m 3,2 km/h (1 Bft) 86,96 %
01.08.2020 11:44 26,4 C 28,3 C 26,7 C 71 % 1014,6 hPa 0,0 l/m 0 min 0 min 351 W/m 6,4 km/h (2 Bft) 87,23 %
01.08.2020 11:46 26,5 C 28,9 C 26,7 C 70 % 1014,7 hPa 0,0 l/m 0 min 0 min 346 W/m 9,7 km/h (2 Bft) 95,74 %
01.08.2020 11:48 26,6 C 28,3 C 27,2 C 69 % 1014,6 hPa 0,0 l/m 0 min 0 min 356 W/m 6,4 km/h (2 Bft) 85,11 %
01.08.2020 11:50 26,6 C 28,9 C 27,2 C 69 % 1014,7 hPa 0,0 l/m 0 min 0 min 326 W/m 3,2 km/h (1 Bft) 89,36 %
01.08.2020 11:52 26,6 C 28,3 C 26,7 C 69 % 1014,7 hPa 0,0 l/m 0 min 0 min 309 W/m 12,9 km/h (3 Bft) 93,02 %
01.08.2020 11:54 26,7 C 28,3 C 26,7 C 69 % 1014,7 hPa 0,0 l/m 0 min 0 min 315 W/m 6,4 km/h (2 Bft) 81,63 %
01.08.2020 11:56 26,7 C 28,9 C 27,2 C 69 % 1014,6 hPa 0,0 l/m 0 min 0 min 358 W/m 3,2 km/h (1 Bft) 75,00 %
01.08.2020 11:58 26,8 C 29,4 C 27,2 C 69 % 1014,6 hPa 0,0 l/m 2 min 0 min 391 W/m 3,2 km/h (1 Bft) 89,36 %
01.08.2020 12:00 26,9 C 29,4 C 27,2 C 69 % 1014,6 hPa 0,0 l/m 2 min 0 min 501 W/m 6,4 km/h (2 Bft) 87,23 %
01.08.2020 12:02 27,0 C 30,0 C 27,8 C 68 % 1014,6 hPa 0,0 l/m 2 min 0 min 494 W/m 3,2 km/h (1 Bft) 88,89 %
01.08.2020 12:04 27,1 C 30,6 C 27,8 C 68 % 1014,6 hPa 0,0 l/m 2 min 0 min 446 W/m 6,4 km/h (2 Bft) 87,50 %
01.08.2020 12:08 27,2 C 29,4 C 27,2 C 67 % 1014,6 hPa 0,0 l/m 4 min 0 min 382 W/m 9,7 km/h (2 Bft) 92,22 %
01.08.2020 12:10 27,3 C 29,4 C 27,2 C 67 % 1014,7 hPa 0,0 l/m 0 min 0 min 348 W/m 6,4 km/h (2 Bft) 93,75 %
01.08.2020 12:13 27,4 C 30,0 C 27,8 C 68 % 1014,6 hPa 0,0 l/m 0 min 0 min 369 W/m 3,2 km/h (1 Bft) 94,29 %
01.08.2020 12:14 27,4 C 30,0 C 27,8 C 69 % 1014,6 hPa 0,0 l/m 0 min 0 min 362 W/m 6,4 km/h (2 Bft) 96,00 %
01.08.2020 12:16 27,5 C 29,4 C 27,8 C 67 % 1014,6 hPa 0,0 l/m 0 min 0 min 343 W/m 12,9 km/h (3 Bft) 95,74 %
01.08.2020 12:18 27,5 C 29,4 C 27,8 C 65 % 1014,6 hPa 0,0 l/m 0 min 0 min 339 W/m 6,4 km/h (2 Bft) 97,87 %
01.08.2020 12:20 27,6 C 29,4 C 27,8 C 64 % 1014,6 hPa 0,0 l/m 0 min 0 min 369 W/m 6,4 km/h (2 Bft) 97,87 %
01.08.2020 12:22 27,6 C 29,4 C 27,8 C 64 % 1014,6 hPa 0,0 l/m 0 min 0 min 382 W/m 6,4 km/h (2 Bft) 100,00 %
01.08.2020 12:24 27,6 C 29,4 C 27,8 C 64 % 1014,6 hPa 0,0 l/m 0 min 0 min 364 W/m 6,4 km/h (2 Bft) 100,00 %
01.08.2020 12:26 27,7 C 30,0 C 27,8 C 64 % 1014,6 hPa 0,0 l/m 2 min 0 min 439 W/m 3,2 km/h (1 Bft) 96,23 %
01.08.2020 12:28 27,7 C 30,0 C 27,8 C 65 % 1014,6 hPa 0,0 l/m 2 min 0 min 396 W/m 12,9 km/h (3 Bft) 100,00 %
01.08.2020 12:30 27,8 C 30,0 C 27,8 C 66 % 1014,6 hPa 0,0 l/m 0 min 0 min 322 W/m 6,4 km/h (2 Bft) 100,00 %
01.08.2020 12:32 27,9 C 29,4 C 27,8 C 65 % 1014,6 hPa 0,0 l/m 0 min 0 min 331 W/m 12,9 km/h (3 Bft) 100,00 %
01.08.2020 12:34 27,9 C 28,9 C 27,8 C 63 % 1014,6 hPa 0,0 l/m 0 min 0 min 370 W/m 16,1 km/h (3 Bft) 100,00 %
01.08.2020 12:36 27,9 C 29,4 C 27,8 C 63 % 1014,6 hPa 0,0 l/m 2 min 0 min 412 W/m 12,9 km/h (3 Bft) 97,87 %
01.08.2020 12:38 28,0 C 29,4 C 28,3 C 65 % 1014,6 hPa 0,0 l/m 0 min 0 min 354 W/m 6,4 km/h (2 Bft) 100,00 %
01.08.2020 12:40 28,1 C 29,4 C 27,8 C 65 % 1014,6 hPa 0,0 l/m 0 min 0 min 317 W/m 6,4 km/h (2 Bft) 100,00 %
01.08.2020 12:42 28,1 C 29,4 C 27,8 C 63 % 1014,5 hPa 0,0 l/m 0 min 0 min 309 W/m 6,4 km/h (2 Bft) 100,00 %
01.08.2020 12:44 28,1 C 29,4 C 27,8 C 63 % 1014,5 hPa 0,0 l/m 0 min 0 min 306 W/m 6,4 km/h (2 Bft) 100,00 %
01.08.2020 12:46 28,1 C 28,9 C 27,8 C 63 % 1014,5 hPa 0,0 l/m 0 min 0 min 287 W/m 6,4 km/h (2 Bft) 95,74 %
01.08.2020 12:50 28,2 C 28,9 C 27,2 C 63 % 1014,6 hPa 0,0 l/m 0 min 0 min 277 W/m 6,4 km/h (2 Bft) 100,00 %
01.08.2020 12:53 28,2 C 28,9 C 27,2 C 64 % 1014,6 hPa 0,0 l/m 0 min 0 min 278 W/m 3,2 km/h (1 Bft) 100,00 %
01.08.2020 12:55 28,2 C 28,9 C 27,2 C 65 % 1014,6 hPa 0,0 l/m 0 min 0 min 278 W/m 6,4 km/h (2 Bft) 100,00 %
01.08.2020 13:00 28,2 C 28,9 C 27,2 C 64 % 1014,6 hPa 0,0 l/m 0 min 0 min 276 W/m 3,2 km/h (1 Bft) 100,00 %
01.08.2020 13:16 29,1 C 36,1 C 28,9 C 65 % 1014,5 hPa 0,0 l/m 5 min 0 min 888 W/m 6,4 km/h (2 Bft) 100,00 %
01.08.2020 13:18 29,2 C 36,1 C 28,9 C 61 % 1014,5 hPa 0,0 l/m 2 min 0 min 898 W/m 12,9 km/h (3 Bft) 100,00 %
01.08.2020 13:20 29,3 C 33,9 C 28,3 C 59 % 1014,5 hPa 0,0 l/m 2 min 0 min 897 W/m 12,9 km/h (3 Bft) 98,00 %
01.08.2020 13:22 29,3 C 35,0 C 28,3 C 59 % 1014,5 hPa 0,0 l/m 2 min 0 min 897 W/m 6,4 km/h (2 Bft) 100,00 %
01.08.2020 13:26 29,4 C 35,0 C 28,3 C 60 % 1014,5 hPa 0,0 l/m 4 min 0 min 742 W/m 12,9 km/h (3 Bft) 100,00 %
01.08.2020 13:28 29,5 C 34,4 C 28,3 C 59 % 1014,5 hPa 0,0 l/m 2 min 0 min 664 W/m 9,7 km/h (2 Bft) 100,00 %
01.08.2020 13:30 29,6 C 34,4 C 28,3 C 58 % 1014,4 hPa 0,0 l/m 2 min 0 min 851 W/m 6,4 km/h (2 Bft) 97,87 %
01.08.2020 13:32 29,6 C 35,0 C 28,3 C 57 % 1014,5 hPa 0,0 l/m 2 min 0 min 889 W/m 9,7 km/h (2 Bft) 98,11 %
01.08.2020 13:34 29,7 C 34,4 C 28,9 C 56 % 1014,5 hPa 0,0 l/m 2 min 0 min 882 W/m 16,1 km/h (3 Bft) 97,50 %
01.08.2020 13:36 29,8 C 35,0 C 28,9 C 59 % 1014,4 hPa 0,0 l/m 2 min 0 min 878 W/m 6,4 km/h (2 Bft) 100,00 %
01.08.2020 13:38 29,9 C 35,0 C 28,9 C 56 % 1014,4 hPa 0,0 l/m 2 min 0 min 882 W/m 9,7 km/h (2 Bft) 97,87 %
01.08.2020 13:40 30,0 C 35,6 C 28,9 C 58 % 1014,3 hPa 0,0 l/m 2 min 0 min 895 W/m 9,7 km/h (2 Bft) 97,92 %
01.08.2020 13:42 30,2 C 36,1 C 28,9 C 58 % 1014,4 hPa 0,0 l/m 2 min 0 min 846 W/m 6,4 km/h (2 Bft) 97,87 %
01.08.2020 13:44 30,3 C 36,7 C 29,4 C 56 % 1014,4 hPa 0,0 l/m 2 min 0 min 884 W/m 12,9 km/h (3 Bft) 100,00 %
01.08.2020 13:46 30,4 C 36,7 C 29,4 C 59 % 1014,3 hPa 0,0 l/m 2 min 0 min 882 W/m 9,7 km/h (2 Bft) 100,00 %
01.08.2020 13:48 30,6 C 37,2 C 30,0 C 61 % 1014,3 hPa 0,0 l/m 2 min 0 min 873 W/m 3,2 km/h (1 Bft) 100,00 %
01.08.2020 13:50 30,8 C 37,2 C 30,0 C 59 % 1014,4 hPa 0,0 l/m 2 min 0 min 861 W/m 6,4 km/h (2 Bft) 97,22 %
01.08.2020 13:52 30,9 C 37,2 C 30,6 C 56 % 1014,3 hPa 0,0 l/m 2 min 0 min 852 W/m 3,2 km/h (1 Bft) 98,25 %
01.08.2020 13:54 30,9 C 36,1 C 30,6 C 54 % 1014,3 hPa 0,0 l/m 2 min 0 min 862 W/m 16,1 km/h (3 Bft) 98,00 %
01.08.2020 13:56 31,1 C 36,1 C 30,6 C 52 % 1014,3 hPa 0,0 l/m 2 min 0 min 834 W/m 6,4 km/h (2 Bft) 97,87 %
01.08.2020 13:58 31,1 C 36,1 C 31,1 C 52 % 1014,3 hPa 0,0 l/m 2 min 0 min 838 W/m 9,7 km/h (2 Bft) 97,14 %
01.08.2020 14:00 31,3 C 37,2 C 32,8 C 61 % 1014,3 hPa 0,0 l/m 2 min 0 min 876 W/m 3,2 km/h (1 Bft) 98,21 %
01.08.2020 14:02 31,4 C 37,8 C 33,9 C 61 % 1014,2 hPa 0,0 l/m 2 min 0 min 877 W/m 6,4 km/h (2 Bft) 97,96 %
01.08.2020 14:04 31,6 C 38,3 C 35,6 C 57 % 1014,2 hPa 0,0 l/m 2 min 0 min 891 W/m 6,4 km/h (2 Bft) 97,22 %
01.08.2020 14:06 31,7 C 37,8 C 37,2 C 54 % 1014,2 hPa 0,0 l/m 2 min 0 min 884 W/m 3,2 km/h (1 Bft) 98,15 %
01.08.2020 14:08 31,8 C 37,2 C 38,3 C 54 % 1014,2 hPa 0,0 l/m 2 min 0 min 885 W/m 6,4 km/h (2 Bft) 98,00 %
01.08.2020 14:10 31,8 C 37,2 C 38,9 C 52 % 1014,2 hPa 0,0 l/m 2 min 0 min 881 W/m 9,7 km/h (2 Bft) 95,83 %
01.08.2020 14:12 31,9 C 37,2 C 37,8 C 52 % 1014,1 hPa 0,0 l/m 2 min 0 min 874 W/m 16,1 km/h (3 Bft) 95,83 %
01.08.2020 14:14 31,9 C 36,1 C 36,1 C 51 % 1014,1 hPa 0,0 l/m 2 min 0 min 866 W/m 19,3 km/h (3 Bft) 100,00 %
01.08.2020 14:16 32,0 C 36,7 C 35,6 C 51 % 1014,1 hPa 0,0 l/m 2 min 0 min 875 W/m 6,4 km/h (2 Bft) 96,30 %
01.08.2020 14:18 32,1 C 37,2 C 34,4 C 51 % 1014,1 hPa 0,0 l/m 2 min 0 min 871 W/m 12,9 km/h (3 Bft) 96,08 %
01.08.2020 14:20 32,2 C 37,8 C 33,3 C 51 % 1014,1 hPa 0,0 l/m 2 min 0 min 873 W/m 9,7 km/h (2 Bft) 97,14 %
01.08.2020 14:22 32,3 C 37,8 C 33,9 C 52 % 1014,0 hPa 0,0 l/m 2 min 0 min 869 W/m 6,4 km/h (2 Bft) 97,87 %
01.08.2020 14:24 32,3 C 37,8 C 33,9 C 51 % 1014,0 hPa 0,0 l/m 2 min 0 min 874 W/m 6,4 km/h (2 Bft) 96,49 %
01.08.2020 14:26 32,4 C 37,8 C 33,3 C 52 % 1014,1 hPa 0,0 l/m 2 min 0 min 871 W/m 6,4 km/h (2 Bft) 100,00 %
01.08.2020 14:28 32,5 C 37,8 C 32,8 C 50 % 1014,0 hPa 0,0 l/m 2 min 0 min 870 W/m 9,7 km/h (2 Bft) 93,75 %
01.08.2020 14:30 32,6 C 37,2 C 32,2 C 50 % 1014,0 hPa 0,0 l/m 2 min 0 min 864 W/m 12,9 km/h (3 Bft) 98,15 %
01.08.2020 14:32 32,6 C 36,7 C 32,2 C 50 % 1014,0 hPa 0,0 l/m 2 min 0 min 865 W/m 6,4 km/h (2 Bft) 97,44 %
01.08.2020 14:34 32,7 C 37,2 C 32,2 C 52 % 1013,9 hPa 0,0 l/m 2 min 0 min 860 W/m 6,4 km/h (2 Bft) 97,87 %
01.08.2020 14:36 32,8 C 37,2 C 31,7 C 51 % 1013,9 hPa 0,0 l/m 2 min 0 min 860 W/m 12,9 km/h (3 Bft) 95,83 %
01.08.2020 14:38 32,8 C 36,7 C 31,1 C 49 % 1013,9 hPa 0,0 l/m 2 min 0 min 858 W/m 6,4 km/h (2 Bft) 98,21 %
01.08.2020 14:40 32,8 C 37,2 C 31,1 C 51 % 1013,9 hPa 0,0 l/m 2 min 0 min 854 W/m 9,7 km/h (2 Bft) 97,22 %
01.08.2020 14:42 32,8 C 36,7 C 30,6 C 50 % 1013,9 hPa 0,0 l/m 2 min 0 min 854 W/m 19,3 km/h (3 Bft) 95,92 %
01.08.2020 14:44 32,9 C 37,2 C 30,6 C 53 % 1013,8 hPa 0,0 l/m 2 min 0 min 847 W/m 6,4 km/h (2 Bft) 96,43 %
01.08.2020 14:46 32,9 C 37,8 C 30,6 C 53 % 1013,9 hPa 0,0 l/m 2 min 0 min 846 W/m 9,7 km/h (2 Bft) 97,44 %
01.08.2020 14:48 33,0 C 38,9 C 30,6 C 51 % 1013,8 hPa 0,0 l/m 2 min 0 min 842 W/m 9,7 km/h (2 Bft) 97,92 %
01.08.2020 14:50 33,1 C 38,9 C 30,6 C 51 % 1013,8 hPa 0,0 l/m 2 min 0 min 813 W/m 9,7 km/h (2 Bft) 97,67 %
01.08.2020 14:52 33,1 C 38,9 C 30,6 C 52 % 1013,8 hPa 0,0 l/m 2 min 0 min 850 W/m 9,7 km/h (2 Bft) 96,08 %
01.08.2020 14:57 33,3 C 37,2 C 30,6 C 51 % 1013,7 hPa 0,0 l/m 5 min 0 min 832 W/m 9,7 km/h (2 Bft) 97,46 %
01.08.2020 14:58 33,3 C 37,2 C 30,6 C 51 % 1013,7 hPa 0,0 l/m 1 min 0 min 840 W/m 9,7 km/h (2 Bft) 100,00 %
01.08.2020 15:00 33,3 C 37,8 C 30,6 C 51 % 1013,7 hPa 0,0 l/m 2 min 0 min 832 W/m 6,4 km/h (2 Bft) 97,62 %
01.08.2020 15:02 33,3 C 37,8 C 30,6 C 52 % 1013,7 hPa 0,0 l/m 2 min 0 min 845 W/m 6,4 km/h (2 Bft) 91,49 %
01.08.2020 15:04 33,4 C 37,8 C 30,6 C 52 % 1013,6 hPa 0,0 l/m 2 min 0 min 847 W/m 12,9 km/h (3 Bft) 97,87 %
01.08.2020 15:06 33,4 C 37,2 C 30,6 C 50 % 1013,7 hPa 0,0 l/m 2 min 0 min 850 W/m 16,1 km/h (3 Bft) 97,87 %
01.08.2020 15:08 33,4 C 36,7 C 31,1 C 50 % 1013,8 hPa 0,0 l/m 2 min 0 min 715 W/m 12,9 km/h (3 Bft) 97,87 %
01.08.2020 15:10 33,4 C 36,1 C 30,6 C 50 % 1013,7 hPa 0,0 l/m 2 min 0 min 822 W/m 16,1 km/h (3 Bft) 97,92 %
01.08.2020 15:12 33,4 C 36,1 C 30,6 C 50 % 1013,6 hPa 0,0 l/m 2 min 0 min 817 W/m 12,9 km/h (3 Bft) 95,83 %
01.08.2020 15:14 33,4 C 36,1 C 31,1 C 51 % 1013,6 hPa 0,0 l/m 2 min 0 min 805 W/m 16,1 km/h (3 Bft) 95,65 %
01.08.2020 15:16 33,4 C 36,1 C 31,1 C 52 % 1013,7 hPa 0,0 l/m 2 min 0 min 816 W/m 12,9 km/h (3 Bft) 97,92 %
01.08.2020 15:18 33,3 C 36,7 C 31,1 C 53 % 1013,7 hPa 0,0 l/m 2 min 0 min 780 W/m 6,4 km/h (2 Bft) 93,75 %
01.08.2020 15:20 33,4 C 37,2 C 31,1 C 55 % 1013,7 hPa 0,0 l/m 2 min 0 min 809 W/m 12,9 km/h (3 Bft) 97,92 %
01.08.2020 15:22 33,4 C 37,2 C 31,1 C 54 % 1013,7 hPa 0,0 l/m 2 min 0 min 806 W/m 12,9 km/h (3 Bft) 97,87 %
01.08.2020 15:24 33,4 C 37,2 C 31,1 C 52 % 1013,7 hPa 0,0 l/m 2 min 0 min 758 W/m 9,7 km/h (2 Bft) 97,87 %
01.08.2020 15:26 33,4 C 37,2 C 31,1 C 54 % 1013,7 hPa 0,0 l/m 2 min 0 min 710 W/m 12,9 km/h (3 Bft) 97,92 %
01.08.2020 15:28 33,4 C 36,7 C 31,1 C 55 % 1013,7 hPa 0,0 l/m 2 min 0 min 748 W/m 19,3 km/h (3 Bft) 97,87 %
01.08.2020 15:30 33,4 C 37,2 C 31,1 C 55 % 1013,7 hPa 0,0 l/m 2 min 0 min 796 W/m 9,7 km/h (2 Bft) 95,74 %
01.08.2020 15:32 33,4 C 36,7 C 31,1 C 52 % 1013,7 hPa 0,0 l/m 2 min 0 min 799 W/m 16,1 km/h (3 Bft) 97,96 %
01.08.2020 15:34 33,4 C 36,7 C 31,1 C 53 % 1013,7 hPa 0,0 l/m 2 min 0 min 810 W/m 12,9 km/h (3 Bft) 95,74 %
01.08.2020 15:36 33,4 C 35,0 C 31,1 C 52 % 1013,7 hPa 0,0 l/m 2 min 0 min 838 W/m 16,1 km/h (3 Bft) 97,87 %
01.08.2020 15:38 33,3 C 36,1 C 31,1 C 53 % 1013,8 hPa 0,0 l/m 2 min 0 min 836 W/m 12,9 km/h (3 Bft) 97,92 %
01.08.2020 15:40 33,3 C 36,1 C 31,1 C 53 % 1013,7 hPa 0,0 l/m 2 min 0 min 822 W/m 12,9 km/h (3 Bft) 94,29 %
01.08.2020 15:42 33,3 C 36,1 C 31,1 C 53 % 1013,7 hPa 0,0 l/m 2 min 0 min 803 W/m 16,1 km/h (3 Bft) 95,83 %
01.08.2020 15:44 33,3 C 36,7 C 31,7 C 56 % 1013,7 hPa 0,0 l/m 2 min 0 min 795 W/m 6,4 km/h (2 Bft) 95,83 %
01.08.2020 15:46 33,3 C 37,2 C 31,1 C 55 % 1013,7 hPa 0,0 l/m 2 min 0 min 808 W/m 12,9 km/h (3 Bft) 97,87 %
01.08.2020 15:48 33,3 C 37,2 C 31,1 C 53 % 1013,8 hPa 0,0 l/m 2 min 0 min 798 W/m 19,3 km/h (3 Bft) 97,92 %
01.08.2020 15:50 33,3 C 37,2 C 31,1 C 54 % 1013,8 hPa 0,0 l/m 2 min 0 min 797 W/m 12,9 km/h (3 Bft) 95,74 %
01.08.2020 15:52 33,4 C 37,2 C 31,1 C 53 % 1013,8 hPa 0,0 l/m 2 min 0 min 803 W/m 19,3 km/h (3 Bft) 95,65 %
01.08.2020 15:54 33,4 C 37,2 C 31,1 C 54 % 1013,7 hPa 0,0 l/m 2 min 0 min 794 W/m 19,3 km/h (3 Bft) 93,62 %
01.08.2020 15:56 33,4 C 36,7 C 31,1 C 53 % 1013,9 hPa 0,0 l/m 2 min 0 min 774 W/m 12,9 km/h (3 Bft) 93,62 %
01.08.2020 15:58 33,4 C 36,7 C 31,1 C 53 % 1013,8 hPa 0,0 l/m 2 min 0 min 780 W/m 9,7 km/h (2 Bft) 96,00 %
01.08.2020 16:00 33,3 C 35,6 C 31,1 C 53 % 1013,8 hPa 0,0 l/m 2 min 0 min 779 W/m 12,9 km/h (3 Bft) 95,74 %
01.08.2020 16:02 33,3 C 36,1 C 31,1 C 53 % 1013,7 hPa 0,0 l/m 2 min 0 min 719 W/m 12,9 km/h (3 Bft) 93,62 %
01.08.2020 16:04 33,3 C 36,1 C 31,1 C 55 % 1013,8 hPa 0,0 l/m 2 min 0 min 718 W/m 12,9 km/h (3 Bft) 95,74 %
01.08.2020 16:06 33,4 C 36,7 C 30,6 C 53 % 1013,9 hPa 0,0 l/m 2 min 0 min 736 W/m 9,7 km/h (2 Bft) 93,88 %
01.08.2020 16:08 33,4 C 37,2 C 30,6 C 53 % 1014,0 hPa 0,0 l/m 2 min 0 min 782 W/m 12,9 km/h (3 Bft) 95,74 %
01.08.2020 16:10 33,4 C 36,7 C 30,6 C 53 % 1013,8 hPa 0,0 l/m 2 min 0 min 761 W/m 9,7 km/h (2 Bft) 91,30 %
01.08.2020 16:12 33,4 C 36,1 C 31,1 C 53 % 1013,8 hPa 0,0 l/m 2 min 0 min 677 W/m 12,9 km/h (3 Bft) 95,74 %
01.08.2020 16:14 33,3 C 35,0 C 30,6 C 52 % 1013,9 hPa 0,0 l/m 2 min 0 min 608 W/m 16,1 km/h (3 Bft) 95,74 %
01.08.2020 16:16 33,3 C 34,4 C 31,1 C 53 % 1013,9 hPa 0,0 l/m 2 min 0 min 586 W/m 12,9 km/h (3 Bft) 95,74 %
01.08.2020 16:18 33,3 C 35,0 C 31,1 C 52 % 1013,8 hPa 0,0 l/m 2 min 0 min 691 W/m 9,7 km/h (2 Bft) 95,74 %
01.08.2020 16:20 33,2 C 35,6 C 31,1 C 52 % 1013,8 hPa 0,0 l/m 2 min 0 min 727 W/m 9,7 km/h (2 Bft) 97,56 %
01.08.2020 16:22 33,2 C 36,1 C 31,1 C 53 % 1013,8 hPa 0,0 l/m 2 min 0 min 756 W/m 9,7 km/h (2 Bft) 95,83 %
01.08.2020 16:24 33,2 C 35,0 C 31,1 C 53 % 1013,8 hPa 0,0 l/m 2 min 0 min 773 W/m 25,7 km/h (4 Bft) 95,74 %
01.08.2020 16:26 33,2 C 35,0 C 31,1 C 53 % 1013,8 hPa 0,0 l/m 2 min 0 min 548 W/m 6,4 km/h (2 Bft) 97,83 %
01.08.2020 16:28 33,1 C 35,0 C 31,1 C 54 % 1013,8 hPa 0,0 l/m 2 min 0 min 597 W/m 12,9 km/h (3 Bft) 97,87 %
01.08.2020 16:30 33,1 C 35,6 C 30,6 C 55 % 1013,8 hPa 0,0 l/m 2 min 0 min 637 W/m 9,7 km/h (2 Bft) 95,83 %
01.08.2020 16:32 33,1 C 35,0 C 30,6 C 54 % 1013,8 hPa 0,0 l/m 2 min 0 min 592 W/m 6,4 km/h (2 Bft) 97,87 %
01.08.2020 16:34 33,1 C 33,9 C 30,6 C 55 % 1013,8 hPa 0,0 l/m 2 min 0 min 500 W/m 16,1 km/h (3 Bft) 97,87 %
01.08.2020 16:36 33,0 C 33,9 C 30,6 C 54 % 1013,7 hPa 0,0 l/m 2 min 0 min 583 W/m 12,9 km/h (3 Bft) 97,56 %
01.08.2020 16:38 32,9 C 35,0 C 30,6 C 55 % 1013,7 hPa 0,0 l/m 2 min 0 min 684 W/m 6,4 km/h (2 Bft) 98,31 %
01.08.2020 16:40 32,9 C 34,4 C 31,1 C 54 % 1013,7 hPa 0,0 l/m 2 min 0 min 682 W/m 12,9 km/h (3 Bft) 97,22 %
01.08.2020 16:42 32,8 C 35,0 C 31,1 C 54 % 1013,7 hPa 0,0 l/m 2 min 0 min 620 W/m 12,9 km/h (3 Bft) 97,87 %
01.08.2020 16:44 32,8 C 35,0 C 30,6 C 54 % 1013,8 hPa 0,0 l/m 2 min 0 min 568 W/m 9,7 km/h (2 Bft) 97,92 %
01.08.2020 16:46 32,8 C 35,0 C 30,6 C 57 % 1013,7 hPa 0,0 l/m 2 min 0 min 640 W/m 6,4 km/h (2 Bft) 95,83 %
01.08.2020 16:48 32,8 C 35,0 C 30,6 C 55 % 1013,7 hPa 0,0 l/m 2 min 0 min 561 W/m 12,9 km/h (3 Bft) 97,83 %
01.08.2020 16:50 32,8 C 35,0 C 30,0 C 54 % 1013,8 hPa 0,0 l/m 2 min 0 min 597 W/m 12,9 km/h (3 Bft) 97,87 %
01.08.2020 16:52 32,7 C 35,0 C 30,0 C 55 % 1013,7 hPa 0,0 l/m 2 min 0 min 570 W/m 9,7 km/h (2 Bft) 97,96 %
01.08.2020 16:54 32,7 C 35,0 C 30,0 C 56 % 1013,7 hPa 0,0 l/m 2 min 0 min 603 W/m 12,9 km/h (3 Bft) 97,92 %
01.08.2020 16:56 32,7 C 34,4 C 30,0 C 55 % 1013,7 hPa 0,0 l/m 2 min 0 min 591 W/m 9,7 km/h (2 Bft) 97,87 %
01.08.2020 16:58 32,7 C 35,0 C 30,0 C 55 % 1013,7 hPa 0,0 l/m 2 min 0 min 647 W/m 12,9 km/h (3 Bft) 97,87 %
01.08.2020 17:00 32,6 C 35,0 C 30,0 C 55 % 1013,7 hPa 0,0 l/m 2 min 0 min 681 W/m 12,9 km/h (3 Bft) 97,87 %
01.08.2020 17:02 32,7 C 35,6 C 30,0 C 55 % 1013,7 hPa 0,0 l/m 2 min 0 min 690 W/m 9,7 km/h (2 Bft) 95,83 %
01.08.2020 17:04 32,7 C 35,0 C 30,0 C 56 % 1013,7 hPa 0,0 l/m 2 min 0 min 688 W/m 9,7 km/h (2 Bft) 97,92 %
01.08.2020 17:06 32,6 C 35,0 C 30,0 C 55 % 1013,7 hPa 0,0 l/m 2 min 0 min 640 W/m 12,9 km/h (3 Bft) 97,87 %
01.08.2020 17:08 32,6 C 35,0 C 30,0 C 55 % 1013,8 hPa 0,0 l/m 2 min 0 min 549 W/m 6,4 km/h (2 Bft) 97,87 %
01.08.2020 17:10 32,6 C 34,4 C 30,0 C 55 % 1013,8 hPa 0,0 l/m 2 min 0 min 494 W/m 9,7 km/h (2 Bft) 97,83 %
01.08.2020 17:12 32,6 C 34,4 C 30,0 C 55 % 1013,8 hPa 0,0 l/m 2 min 0 min 521 W/m 9,7 km/h (2 Bft) 95,74 %
01.08.2020 17:14 32,6 C 33,3 C 30,0 C 55 % 1013,8 hPa 0,0 l/m 2 min 0 min 451 W/m 12,9 km/h (3 Bft) 97,14 %
01.08.2020 17:16 32,5 C 33,3 C 29,4 C 55 % 1013,8 hPa 0,0 l/m 2 min 0 min 433 W/m 9,7 km/h (2 Bft) 95,74 %
01.08.2020 17:18 32,5 C 32,8 C 29,4 C 55 % 1013,7 hPa 0,0 l/m 2 min 0 min 419 W/m 12,9 km/h (3 Bft) 97,87 %
01.08.2020 17:20 32,4 C 32,2 C 29,4 C 55 % 1013,8 hPa 0,0 l/m 2 min 0 min 423 W/m 9,7 km/h (2 Bft) 97,87 %
01.08.2020 17:22 32,2 C 32,2 C 29,4 C 55 % 1013,8 hPa 0,0 l/m 2 min 0 min 432 W/m 9,7 km/h (2 Bft) 97,92 %
01.08.2020 17:24 32,2 C 32,2 C 29,4 C 55 % 1013,7 hPa 0,0 l/m 2 min 0 min 443 W/m 9,7 km/h (2 Bft) 97,87 %
01.08.2020 17:26 32,1 C 32,2 C 29,4 C 55 % 1013,8 hPa 0,0 l/m 2 min 0 min 440 W/m 12,9 km/h (3 Bft) 95,74 %
01.08.2020 17:28 32,0 C 32,8 C 28,9 C 55 % 1013,9 hPa 0,0 l/m 2 min 0 min 481 W/m 16,1 km/h (3 Bft) 97,87 %
01.08.2020 17:30 31,9 C 32,8 C 28,9 C 56 % 1013,9 hPa 0,0 l/m 2 min 0 min 494 W/m 9,7 km/h (2 Bft) 100,00 %
01.08.2020 17:32 31,9 C 32,8 C 28,9 C 56 % 1013,8 hPa 0,0 l/m 2 min 0 min 482 W/m 9,7 km/h (2 Bft) 100,00 %
01.08.2020 17:34 31,8 C 32,8 C 28,9 C 56 % 1013,8 hPa 0,0 l/m 2 min 0 min 519 W/m 9,7 km/h (2 Bft) 100,00 %
01.08.2020 17:36 31,8 C 32,8 C 28,9 C 56 % 1013,8 hPa 0,0 l/m 2 min 0 min 477 W/m 9,7 km/h (2 Bft) 97,96 %
01.08.2020 17:38 31,8 C 32,8 C 28,9 C 55 % 1013,7 hPa 0,0 l/m 2 min 0 min 465 W/m 12,9 km/h (3 Bft) 100,00 %
01.08.2020 17:40 31,7 C 31,7 C 28,9 C 56 % 1013,7 hPa 0,0 l/m 2 min 0 min 365 W/m 9,7 km/h (2 Bft) 100,00 %
01.08.2020 17:42 31,7 C 31,1 C 28,3 C 56 % 1013,8 hPa 0,0 l/m 2 min 0 min 281 W/m 12,9 km/h (3 Bft) 100,00 %
01.08.2020 17:44 31,6 C 30,6 C 28,3 C 56 % 1013,8 hPa 0,0 l/m 0 min 0 min 216 W/m 6,4 km/h (2 Bft) 97,87 %
01.08.2020 17:46 31,5 C 30,6 C 28,3 C 58 % 1013,8 hPa 0,0 l/m 0 min 0 min 218 W/m 6,4 km/h (2 Bft) 95,74 %
01.08.2020 17:48 31,3 C 30,0 C 27,8 C 57 % 1013,7 hPa 0,0 l/m 0 min 0 min 221 W/m 9,7 km/h (2 Bft) 97,83 %
01.08.2020 17:50 31,3 C 30,0 C 27,8 C 57 % 1013,8 hPa 0,0 l/m 0 min 0 min 238 W/m 9,7 km/h (2 Bft) 97,87 %
01.08.2020 17:52 31,2 C 30,0 C 27,8 C 57 % 1013,8 hPa 0,0 l/m 0 min 0 min 245 W/m 9,7 km/h (2 Bft) 97,87 %
01.08.2020 17:54 31,1 C 30,0 C 27,8 C 58 % 1013,8 hPa 0,0 l/m 2 min 0 min 300 W/m 6,4 km/h (2 Bft) 100,00 %
01.08.2020 17:56 30,9 C 30,0 C 27,8 C 58 % 1013,9 hPa 0,0 l/m 2 min 0 min 300 W/m 6,4 km/h (2 Bft) 98,11 %
01.08.2020 17:58 30,8 C 30,0 C 27,8 C 58 % 1013,8 hPa 0,0 l/m 2 min 0 min 283 W/m 9,7 km/h (2 Bft) 97,87 %
01.08.2020 18:00 30,7 C 30,6 C 27,8 C 58 % 1013,8 hPa 0,0 l/m 2 min 0 min 334 W/m 6,4 km/h (2 Bft) 97,87 %
01.08.2020 18:02 30,7 C 31,1 C 27,8 C 59 % 1013,7 hPa 0,0 l/m 2 min 0 min 363 W/m 6,4 km/h (2 Bft) 97,73 %
01.08.2020 18:04 30,6 C 31,1 C 27,8 C 58 % 1013,7 hPa 0,0 l/m 2 min 0 min 444 W/m 9,7 km/h (2 Bft) 95,74 %
01.08.2020 18:08 30,5 C 31,1 C 27,8 C 59 % 1013,7 hPa 0,0 l/m 0 min 0 min 204 W/m 12,9 km/h (3 Bft) 95,74 %
01.08.2020 18:10 30,4 C 31,7 C 27,8 C 59 % 1013,8 hPa 0,0 l/m 2 min 0 min 419 W/m 9,7 km/h (2 Bft) 93,48 %
01.08.2020 18:12 30,4 C 32,2 C 27,8 C 59 % 1013,8 hPa 0,0 l/m 2 min 0 min 549 W/m 9,7 km/h (2 Bft) 91,67 %
01.08.2020 18:14 30,4 C 32,8 C 28,3 C 60 % 1013,8 hPa 0,0 l/m 2 min 0 min 566 W/m 9,7 km/h (2 Bft) 95,74 %
01.08.2020 18:16 30,4 C 32,8 C 28,3 C 59 % 1013,7 hPa 0,0 l/m 2 min 0 min 557 W/m 9,7 km/h (2 Bft) 95,74 %
01.08.2020 18:18 30,5 C 32,8 C 28,3 C 59 % 1013,7 hPa 0,0 l/m 2 min 0 min 535 W/m 6,4 km/h (2 Bft) 95,74 %
01.08.2020 18:20 30,6 C 32,2 C 28,3 C 59 % 1013,7 hPa 0,0 l/m 2 min 0 min 496 W/m 12,9 km/h (3 Bft) 95,74 %
01.08.2020 18:22 30,6 C 31,1 C 28,3 C 59 % 1013,7 hPa 0,0 l/m 2 min 0 min 489 W/m 12,9 km/h (3 Bft) 95,65 %
01.08.2020 18:24 30,6 C 30,0 C 27,8 C 59 % 1013,7 hPa 0,0 l/m 0 min 0 min 186 W/m 16,1 km/h (3 Bft) 95,24 %
01.08.2020 18:26 30,5 C 29,4 C 27,8 C 58 % 1013,7 hPa 0,0 l/m 0 min 0 min 133 W/m 9,7 km/h (2 Bft) 95,83 %
01.08.2020 18:28 30,4 C 28,3 C 27,2 C 59 % 1013,7 hPa 0,0 l/m 0 min 0 min 95 W/m 16,1 km/h (3 Bft) 95,83 %
01.08.2020 18:30 30,3 C 28,3 C 27,2 C 58 % 1013,7 hPa 0,0 l/m 0 min 0 min 98 W/m 6,4 km/h (2 Bft) 93,62 %
01.08.2020 18:32 30,2 C 27,8 C 26,7 C 59 % 1013,7 hPa 0,0 l/m 0 min 0 min 128 W/m 9,7 km/h (2 Bft) 95,65 %
01.08.2020 18:34 30,1 C 27,8 C 26,7 C 59 % 1013,7 hPa 0,0 l/m 0 min 0 min 115 W/m 9,7 km/h (2 Bft) 95,74 %
01.08.2020 18:36 29,9 C 27,8 C 26,7 C 59 % 1013,7 hPa 0,0 l/m 0 min 0 min 106 W/m 12,9 km/h (3 Bft) 95,74 %
01.08.2020 18:38 29,8 C 27,2 C 26,7 C 60 % 1013,6 hPa 0,0 l/m 0 min 0 min 94 W/m 9,7 km/h (2 Bft) 95,74 %
01.08.2020 18:40 29,7 C 27,2 C 26,1 C 60 % 1013,7 hPa 0,0 l/m 0 min 0 min 103 W/m 6,4 km/h (2 Bft) 95,74 %
01.08.2020 18:42 29,6 C 27,2 C 26,1 C 60 % 1013,7 hPa 0,0 l/m 0 min 0 min 74 W/m 6,4 km/h (2 Bft) 95,74 %
01.08.2020 18:44 29,4 C 26,7 C 26,1 C 61 % 1013,7 hPa 0,0 l/m 0 min 0 min 70 W/m 9,7 km/h (2 Bft) 93,48 %
01.08.2020 18:46 29,3 C 26,7 C 26,1 C 62 % 1013,7 hPa 0,0 l/m 0 min 0 min 79 W/m 19,3 km/h (3 Bft) 93,62 %
01.08.2020 18:48 29,2 C 26,7 C 26,1 C 63 % 1013,7 hPa 0,0 l/m 0 min 0 min 70 W/m 9,7 km/h (2 Bft) 97,87 %
01.08.2020 18:50 29,1 C 26,1 C 25,6 C 63 % 1013,6 hPa 0,0 l/m 0 min 0 min 70 W/m 9,7 km/h (2 Bft) 100,00 %
01.08.2020 18:52 28,9 C 26,1 C 25,6 C 64 % 1013,6 hPa 0,0 l/m 0 min 0 min 70 W/m 16,1 km/h (3 Bft) 93,62 %
01.08.2020 18:54 28,8 C 26,1 C 25,6 C 64 % 1013,6 hPa 0,0 l/m 0 min 0 min 74 W/m 9,7 km/h (2 Bft) 100,00 %
01.08.2020 18:56 28,6 C 26,7 C 25,6 C 65 % 1013,6 hPa 0,0 l/m 0 min 0 min 114 W/m 9,7 km/h (2 Bft) 97,83 %
01.08.2020 18:58 28,5 C 26,7 C 25,6 C 66 % 1013,6 hPa 0,0 l/m 2 min 0 min 219 W/m 6,4 km/h (2 Bft) 100,00 %
01.08.2020 19:00 28,4 C 26,7 C 25,6 C 66 % 1013,6 hPa 0,0 l/m 0 min 0 min 119 W/m 9,7 km/h (2 Bft) 100,00 %
01.08.2020 19:02 28,3 C 26,7 C 25,6 C 66 % 1013,6 hPa 0,0 l/m 0 min 0 min 113 W/m 9,7 km/h (2 Bft) 97,92 %
01.08.2020 19:04 28,2 C 26,7 C 25,6 C 67 % 1013,6 hPa 0,0 l/m 2 min 0 min 185 W/m 16,1 km/h (3 Bft) 100,00 %
01.08.2020 19:06 28,1 C 27,2 C 25,6 C 67 % 1013,7 hPa 0,0 l/m 2 min 0 min 291 W/m 16,1 km/h (3 Bft) 100,00 %
01.08.2020 19:08 27,9 C 26,7 C 25,6 C 67 % 1013,6 hPa 0,0 l/m 2 min 0 min 237 W/m 12,9 km/h (3 Bft) 100,00 %
01.08.2020 19:10 27,9 C 27,2 C 25,6 C 67 % 1013,7 hPa 0,0 l/m 2 min 0 min 209 W/m 9,7 km/h (2 Bft) 100,00 %
01.08.2020 19:12 27,8 C 26,7 C 25,6 C 68 % 1013,7 hPa 0,0 l/m 2 min 0 min 175 W/m 9,7 km/h (2 Bft) 100,00 %
01.08.2020 19:14 27,7 C 26,7 C 25,6 C 68 % 1013,6 hPa 0,0 l/m 2 min 0 min 212 W/m 12,9 km/h (3 Bft) 100,00 %
01.08.2020 19:16 27,7 C 26,7 C 25,6 C 68 % 1013,7 hPa 0,0 l/m 2 min 0 min 257 W/m 6,4 km/h (2 Bft) 97,87 %
01.08.2020 19:18 27,7 C 26,7 C 25,6 C 68 % 1013,7 hPa 0,0 l/m 2 min 0 min 298 W/m 16,1 km/h (3 Bft) 100,00 %
01.08.2020 19:20 27,6 C 26,7 C 25,6 C 68 % 1013,7 hPa 0,0 l/m 2 min 0 min 280 W/m 12,9 km/h (3 Bft) 97,87 %
01.08.2020 19:22 27,6 C 26,7 C 25,6 C 68 % 1013,7 hPa 0,0 l/m 2 min 0 min 189 W/m 9,7 km/h (2 Bft) 100,00 %
01.08.2020 19:24 27,6 C 26,7 C 25,6 C 69 % 1013,7 hPa 0,0 l/m 2 min 0 min 146 W/m 6,4 km/h (2 Bft) 95,74 %
01.08.2020 19:26 27,6 C 26,7 C 25,6 C 69 % 1013,8 hPa 0,0 l/m 2 min 0 min 145 W/m 9,7 km/h (2 Bft) 100,00 %
01.08.2020 19:28 27,6 C 27,2 C 25,6 C 69 % 1013,7 hPa 0,0 l/m 2 min 0 min 143 W/m 6,4 km/h (2 Bft) 100,00 %
01.08.2020 19:30 27,6 C 26,7 C 25,6 C 70 % 1013,8 hPa 0,0 l/m 2 min 0 min 140 W/m 6,4 km/h (2 Bft) 97,87 %
01.08.2020 19:32 27,6 C 26,7 C 25,6 C 71 % 1013,8 hPa 0,0 l/m 2 min 0 min 136 W/m 12,9 km/h (3 Bft) 95,74 %
01.08.2020 19:34 27,5 C 26,7 C 25,6 C 70 % 1013,8 hPa 0,0 l/m 2 min 0 min 135 W/m 16,1 km/h (3 Bft) 100,00 %
01.08.2020 19:36 27,5 C 26,7 C 25,6 C 70 % 1013,8 hPa 0,0 l/m 2 min 0 min 138 W/m 9,7 km/h (2 Bft) 97,87 %
01.08.2020 19:38 27,4 C 26,7 C 25,6 C 70 % 1013,8 hPa 0,0 l/m 2 min 0 min 142 W/m 12,9 km/h (3 Bft) 100,00 %
01.08.2020 19:40 27,4 C 26,1 C 25,6 C 71 % 1013,7 hPa 0,0 l/m 2 min 0 min 142 W/m 9,7 km/h (2 Bft) 100,00 %
01.08.2020 19:42 27,4 C 26,7 C 25,6 C 71 % 1013,7 hPa 0,0 l/m 2 min 0 min 146 W/m 12,9 km/h (3 Bft) 100,00 %
01.08.2020 19:44 27,3 C 26,7 C 25,6 C 71 % 1013,7 hPa 0,0 l/m 2 min 0 min 148 W/m 12,9 km/h (3 Bft) 100,00 %
01.08.2020 19:46 27,3 C 26,1 C 25,6 C 71 % 1013,7 hPa 0,0 l/m 2 min 0 min 146 W/m 19,3 km/h (3 Bft) 100,00 %
01.08.2020 19:48 27,2 C 26,1 C 25,6 C 71 % 1013,8 hPa 0,0 l/m 2 min 0 min 135 W/m 6,4 km/h (2 Bft) 100,00 %
01.08.2020 19:50 27,2 C 26,1 C 25,6 C 71 % 1013,8 hPa 0,0 l/m 2 min 0 min 124 W/m 12,9 km/h (3 Bft) 100,00 %
01.08.2020 19:52 27,1 C 25,6 C 25,6 C 71 % 1013,8 hPa 0,0 l/m 2 min 0 min 112 W/m 12,9 km/h (3 Bft) 100,00 %
01.08.2020 19:54 27,1 C 25,6 C 25,0 C 71 % 1013,9 hPa 0,0 l/m 2 min 0 min 103 W/m 9,7 km/h (2 Bft) 97,87 %
01.08.2020 19:56 26,9 C 25,6 C 25,0 C 71 % 1013,9 hPa 0,0 l/m 2 min 0 min 98 W/m 9,7 km/h (2 Bft) 100,00 %
01.08.2020 19:58 26,9 C 25,6 C 25,0 C 71 % 1014,0 hPa 0,0 l/m 2 min 0 min 97 W/m 9,7 km/h (2 Bft) 100,00 %
01.08.2020 20:00 26,8 C 25,6 C 25,0 C 72 % 1014,0 hPa 0,0 l/m 2 min 0 min 95 W/m 12,9 km/h (3 Bft) 100,00 %
01.08.2020 20:02 26,8 C 25,6 C 25,0 C 72 % 1014,1 hPa 0,0 l/m 2 min 0 min 91 W/m 9,7 km/h (2 Bft) 100,00 %
01.08.2020 20:04 26,7 C 25,0 C 25,0 C 72 % 1014,1 hPa 0,0 l/m 2 min 0 min 86 W/m 12,9 km/h (3 Bft) 97,87 %
01.08.2020 20:06 26,6 C 25,0 C 24,4 C 72 % 1014,1 hPa 0,0 l/m 0 min 0 min 80 W/m 12,9 km/h (3 Bft) 95,74 %
01.08.2020 20:08 26,6 C 25,0 C 24,4 C 72 % 1014,1 hPa 0,0 l/m 0 min 0 min 68 W/m 12,9 km/h (3 Bft) 97,87 %
01.08.2020 20:10 26,4 C 25,0 C 24,4 C 72 % 1014,1 hPa 0,0 l/m 0 min 0 min 57 W/m 12,9 km/h (3 Bft) 97,83 %
01.08.2020 20:12 26,3 C 24,4 C 24,4 C 72 % 1014,2 hPa 0,0 l/m 0 min 0 min 49 W/m 12,9 km/h (3 Bft) 97,87 %
01.08.2020 20:14 26,3 C 24,4 C 24,4 C 72 % 1014,2 hPa 0,0 l/m 0 min 0 min 42 W/m 9,7 km/h (2 Bft) 97,87 %
01.08.2020 20:16 26,2 C 24,4 C 24,4 C 72 % 1014,2 hPa 0,0 l/m 0 min 0 min 39 W/m 9,7 km/h (2 Bft) 93,62 %
01.08.2020 20:18 26,1 C 24,4 C 23,9 C 72 % 1014,3 hPa 0,0 l/m 0 min 0 min 41 W/m 9,7 km/h (2 Bft) 95,74 %
01.08.2020 20:20 26,0 C 24,4 C 23,9 C 72 % 1014,3 hPa 0,0 l/m 0 min 0 min 46 W/m 9,7 km/h (2 Bft) 100,00 %
01.08.2020 20:22 25,9 C 23,9 C 23,9 C 72 % 1014,3 hPa 0,0 l/m 0 min 0 min 45 W/m 12,9 km/h (3 Bft) 97,87 %
01.08.2020 20:24 25,8 C 23,9 C 23,9 C 72 % 1014,3 hPa 0,0 l/m 0 min 0 min 42 W/m 9,7 km/h (2 Bft) 97,87 %
01.08.2020 20:26 25,8 C 23,9 C 23,9 C 72 % 1014,3 hPa 0,0 l/m 0 min 0 min 38 W/m 12,9 km/h (3 Bft) 97,87 %
01.08.2020 20:28 25,7 C 23,9 C 23,9 C 72 % 1014,3 hPa 0,0 l/m 0 min 0 min 33 W/m 6,4 km/h (2 Bft) 97,87 %
01.08.2020 20:30 25,7 C 23,9 C 23,9 C 72 % 1014,3 hPa 0,0 l/m 0 min 0 min 33 W/m 6,4 km/h (2 Bft) 97,87 %
01.08.2020 20:32 25,6 C 23,9 C 23,9 C 72 % 1014,3 hPa 0,0 l/m 0 min 0 min 33 W/m 6,4 km/h (2 Bft) 97,83 %
01.08.2020 20:34 25,6 C 23,9 C 23,9 C 73 % 1014,2 hPa 0,0 l/m 0 min 0 min 27 W/m 6,4 km/h (2 Bft) 93,62 %
01.08.2020 20:36 25,5 C 23,3 C 23,3 C 73 % 1014,2 hPa 0,0 l/m 0 min 0 min 25 W/m 6,4 km/h (2 Bft) 95,74 %
01.08.2020 20:38 25,4 C 23,3 C 23,3 C 73 % 1014,3 hPa 0,0 l/m 0 min 0 min 22 W/m 12,9 km/h (3 Bft) 95,74 %
01.08.2020 20:40 25,3 C 23,3 C 23,3 C 73 % 1014,3 hPa 0,0 l/m 0 min 0 min 19 W/m 19,3 km/h (3 Bft) 95,74 %
01.08.2020 20:42 25,3 C 23,3 C 23,3 C 73 % 1014,3 hPa 0,0 l/m 0 min 0 min 17 W/m 12,9 km/h (3 Bft) 95,74 %
01.08.2020 20:44 25,2 C 23,3 C 23,3 C 73 % 1014,3 hPa 0,0 l/m 0 min 0 min 16 W/m 9,7 km/h (2 Bft) 95,65 %
01.08.2020 20:46 25,2 C 23,3 C 23,3 C 73 % 1014,3 hPa 0,0 l/m 0 min 0 min 15 W/m 12,9 km/h (3 Bft) 95,74 %
01.08.2020 20:48 25,1 C 23,3 C 23,3 C 73 % 1014,3 hPa 0,0 l/m 0 min 0 min 14 W/m 16,1 km/h (3 Bft) 97,87 %
01.08.2020 20:50 25,1 C 22,8 C 23,3 C 73 % 1014,4 hPa 0,0 l/m 0 min 0 min 14 W/m 9,7 km/h (2 Bft) 93,62 %
01.08.2020 20:52 25,0 C 22,8 C 22,8 C 74 % 1014,4 hPa 0,0 l/m 0 min 0 min 14 W/m 3,2 km/h (1 Bft) 95,74 %
01.08.2020 20:54 24,9 C 22,8 C 22,8 C 74 % 1014,5 hPa 0,0 l/m 0 min 0 min 12 W/m 19,3 km/h (3 Bft) 93,62 %
01.08.2020 20:56 24,8 C 22,8 C 22,8 C 74 % 1014,5 hPa 0,0 l/m 0 min 0 min 12 W/m 6,4 km/h (2 Bft) 93,48 %
01.08.2020 20:58 24,8 C 22,8 C 22,8 C 74 % 1014,5 hPa 0,0 l/m 0 min 0 min 12 W/m 6,4 km/h (2 Bft) 93,62 %
01.08.2020 21:00 24,7 C 22,8 C 22,8 C 75 % 1014,5 hPa 0,0 l/m 0 min 0 min 12 W/m 9,7 km/h (2 Bft) 95,74 %
01.08.2020 21:02 24,7 C 22,8 C 22,8 C 75 % 1014,6 hPa 0,0 l/m 0 min 0 min 12 W/m 6,4 km/h (2 Bft) 95,74 %
01.08.2020 21:04 24,6 C 22,8 C 22,8 C 75 % 1014,6 hPa 0,0 l/m 0 min 0 min 11 W/m 6,4 km/h (2 Bft) 97,87 %
01.08.2020 21:06 24,6 C 22,2 C 22,8 C 75 % 1014,7 hPa 0,0 l/m 0 min 0 min 10 W/m 6,4 km/h (2 Bft) 97,87 %
01.08.2020 21:08 24,5 C 22,2 C 22,8 C 75 % 1014,8 hPa 0,0 l/m 0 min 0 min 9 W/m 6,4 km/h (2 Bft) 93,48 %
01.08.2020 21:10 24,4 C 22,2 C 22,8 C 75 % 1014,8 hPa 0,0 l/m 0 min 0 min 7 W/m 12,9 km/h (3 Bft) 95,74 %
01.08.2020 21:12 24,3 C 22,2 C 22,2 C 75 % 1014,8 hPa 0,0 l/m 0 min 0 min 5 W/m 9,7 km/h (2 Bft) 93,62 %
01.08.2020 21:14 24,3 C 22,2 C 22,2 C 75 % 1014,9 hPa 0,0 l/m 0 min 0 min 5 W/m 16,1 km/h (3 Bft) 95,74 %
01.08.2020 21:16 24,2 C 22,2 C 22,2 C 75 % 1014,8 hPa 0,0 l/m 0 min 0 min 5 W/m 9,7 km/h (2 Bft) 97,87 %
01.08.2020 21:18 24,2 C 22,2 C 22,2 C 75 % 1014,8 hPa 0,0 l/m 0 min 0 min 3 W/m 6,4 km/h (2 Bft) 97,87 %
01.08.2020 21:20 24,1 C 22,2 C 22,2 C 75 % 1014,8 hPa 0,0 l/m 0 min 0 min 0 W/m 6,4 km/h (2 Bft) 95,65 %
01.08.2020 21:22 24,1 C 22,2 C 22,2 C 75 % 1014,9 hPa 0,0 l/m 0 min 0 min 0 W/m 9,7 km/h (2 Bft) 97,87 %
01.08.2020 21:24 24,0 C 22,2 C 22,2 C 75 % 1014,8 hPa 0,0 l/m 0 min 0 min 0 W/m 12,9 km/h (3 Bft) 97,87 %
01.08.2020 21:26 23,9 C 22,2 C 22,2 C 75 % 1014,8 hPa 0,0 l/m 0 min 0 min 0 W/m 6,4 km/h (2 Bft) 95,74 %
01.08.2020 21:28 23,9 C 22,2 C 22,2 C 76 % 1014,9 hPa 0,0 l/m 0 min 0 min 0 W/m 6,4 km/h (2 Bft) 96,30 %
01.08.2020 21:30 23,8 C 22,2 C 22,2 C 76 % 1014,9 hPa 0,0 l/m 0 min 0 min 0 W/m 6,4 km/h (2 Bft) 95,74 %
01.08.2020 21:32 23,8 C 21,7 C 21,7 C 76 % 1014,9 hPa 0,0 l/m 0 min 0 min 0 W/m 3,2 km/h (1 Bft) 95,83 %
01.08.2020 21:34 23,8 C 21,7 C 21,7 C 76 % 1014,9 hPa 0,0 l/m 0 min 0 min 0 W/m 6,4 km/h (2 Bft) 95,83 %
01.08.2020 21:36 23,7 C 21,7 C 21,7 C 76 % 1014,9 hPa 0,0 l/m 0 min 0 min 0 W/m 3,2 km/h (1 Bft) 95,65 %
01.08.2020 21:38 23,7 C 21,7 C 21,7 C 76 % 1014,9 hPa 0,0 l/m 0 min 0 min 0 W/m 9,7 km/h (2 Bft) 97,87 %
01.08.2020 21:40 23,6 C 21,7 C 21,7 C 76 % 1015,0 hPa 0,0 l/m 0 min 0 min 0 W/m 6,4 km/h (2 Bft) 97,87 %
01.08.2020 21:42 23,6 C 21,7 C 21,7 C 76 % 1014,9 hPa 0,0 l/m 0 min 0 min 0 W/m 3,2 km/h (1 Bft) 97,87 %
01.08.2020 21:44 23,6 C 21,7 C 21,7 C 77 % 1014,9 hPa 0,0 l/m 0 min 0 min 0 W/m 3,2 km/h (1 Bft) 97,87 %
01.08.2020 21:46 23,5 C 21,7 C 21,7 C 77 % 1014,9 hPa 0,0 l/m 0 min 0 min 0 W/m 6,4 km/h (2 Bft) 93,62 %
01.08.2020 21:48 23,5 C 21,1 C 21,7 C 77 % 1014,9 hPa 0,0 l/m 0 min 0 min 0 W/m 3,2 km/h (1 Bft) 97,83 %
01.08.2020 21:50 23,4 C 21,1 C 21,7 C 77 % 1014,9 hPa 0,0 l/m 0 min 0 min 0 W/m 3,2 km/h (1 Bft) 97,87 %
01.08.2020 21:52 23,4 C 21,1 C 21,1 C 77 % 1014,9 hPa 0,0 l/m 0 min 0 min 0 W/m 3,2 km/h (1 Bft) 97,87 %
01.08.2020 21:54 23,4 C 21,1 C 21,1 C 77 % 1014,9 hPa 0,0 l/m 0 min 0 min 0 W/m 3,2 km/h (1 Bft) 95,74 %
01.08.2020 21:56 23,3 C 21,1 C 21,1 C 77 % 1014,9 hPa 0,0 l/m 0 min 0 min 0 W/m 0,0 km/h (0 Bft) 93,62 %
01.08.2020 21:58 23,3 C 21,1 C 21,1 C 77 % 1015,0 hPa 0,0 l/m 0 min 0 min 0 W/m 0,0 km/h (0 Bft) 97,87 %
01.08.2020 22:00 23,3 C 21,1 C 21,1 C 77 % 1015,0 hPa 0,0 l/m 0 min 0 min 0 W/m 6,4 km/h (2 Bft) 100,00 %
01.08.2020 22:02 23,2 C 21,1 C 21,1 C 78 % 1015,0 hPa 0,0 l/m 0 min 0 min 0 W/m 0,0 km/h (0 Bft) 97,87 %
01.08.2020 22:04 23,2 C 20,6 C 21,1 C 77 % 1015,0 hPa 0,0 l/m 0 min 0 min 0 W/m 0,0 km/h (0 Bft) 100,00 %
01.08.2020 22:06 23,2 C 20,6 C 20,6 C 77 % 1014,9 hPa 0,0 l/m 0 min 0 min 0 W/m 0,0 km/h (0 Bft) 100,00 %
01.08.2020 22:08 23,1 C 20,6 C 20,6 C 78 % 1014,9 hPa 0,0 l/m 0 min 0 min 0 W/m 3,2 km/h (1 Bft) 100,00 %
01.08.2020 22:10 23,1 C 20,6 C 20,6 C 78 % 1014,9 hPa 0,0 l/m 0 min 0 min 0 W/m 0,0 km/h (0 Bft) 100,00 %
01.08.2020 22:12 23,1 C 20,6 C 20,6 C 78 % 1014,9 hPa 0,0 l/m 0 min 0 min 0 W/m 0,0 km/h (0 Bft) 100,00 %
01.08.2020 22:14 23,1 C 20,6 C 20,6 C 78 % 1014,8 hPa 0,0 l/m 0 min 0 min 0 W/m 0,0 km/h (0 Bft) 100,00 %
01.08.2020 22:16 23,0 C 20,6 C 20,6 C 78 % 1014,9 hPa 0,0 l/m 0 min 0 min 0 W/m 3,2 km/h (1 Bft) 100,00 %
01.08.2020 22:18 22,9 C 20,6 C 20,6 C 79 % 1014,9 hPa 0,0 l/m 0 min 0 min 0 W/m 3,2 km/h (1 Bft) 100,00 %
01.08.2020 22:20 22,9 C 20,6 C 20,6 C 79 % 1014,9 hPa 0,0 l/m 0 min 0 min 0 W/m 3,2 km/h (1 Bft) 100,00 %
01.08.2020 22:22 22,8 C 20,6 C 20,6 C 79 % 1014,9 hPa 0,0 l/m 0 min 0 min 0 W/m 3,2 km/h (1 Bft) 97,87 %
01.08.2020 22:24 22,8 C 20,6 C 20,6 C 79 % 1014,9 hPa 0,0 l/m 0 min 0 min 0 W/m 9,7 km/h (2 Bft) 100,00 %
01.08.2020 22:26 22,8 C 20,6 C 20,6 C 79 % 1014,9 hPa 0,0 l/m 0 min 0 min 0 W/m 0,0 km/h (0 Bft) 100,00 %
01.08.2020 22:28 22,7 C 20,6 C 20,6 C 79 % 1015,0 hPa 0,0 l/m 0 min 0 min 0 W/m 0,0 km/h (0 Bft) 100,00 %
01.08.2020 22:30 22,7 C 20,6 C 20,6 C 79 % 1014,9 hPa 0,0 l/m 0 min 0 min 0 W/m 0,0 km/h (0 Bft) 100,00 %
01.08.2020 22:32 22,7 C 20,6 C 20,6 C 79 % 1015,0 hPa 0,0 l/m 0 min 0 min 0 W/m 6,4 km/h (2 Bft) 97,87 %
01.08.2020 22:34 22,6 C 20,6 C 20,6 C 79 % 1015,0 hPa 0,0 l/m 0 min 0 min 0 W/m 3,2 km/h (1 Bft) 97,83 %
01.08.2020 22:36 22,6 C 20,6 C 20,6 C 80 % 1015,0 hPa 0,0 l/m 0 min 0 min 0 W/m 6,4 km/h (2 Bft) 97,87 %
01.08.2020 22:38 22,6 C 21,1 C 21,1 C 80 % 1015,0 hPa 0,0 l/m 0 min 0 min 0 W/m 3,2 km/h (1 Bft) 100,00 %
01.08.2020 22:40 22,6 C 21,1 C 21,1 C 80 % 1015,0 hPa 0,0 l/m 0 min 0 min 0 W/m 3,2 km/h (1 Bft) 97,87 %
01.08.2020 22:42 22,5 C 21,1 C 21,1 C 80 % 1015,0 hPa 0,0 l/m 0 min 0 min 0 W/m 9,7 km/h (2 Bft) 100,00 %
01.08.2020 22:44 22,4 C 21,1 C 21,1 C 79 % 1015,0 hPa 0,0 l/m 0 min 0 min 0 W/m 6,4 km/h (2 Bft) 100,00 %
01.08.2020 22:46 22,4 C 21,1 C 21,1 C 78 % 1015,1 hPa 0,0 l/m 0 min 0 min 0 W/m 9,7 km/h (2 Bft) 100,00 %
01.08.2020 22:48 22,3 C 21,1 C 21,1 C 77 % 1015,1 hPa 0,0 l/m 0 min 0 min 0 W/m 6,4 km/h (2 Bft) 100,00 %
01.08.2020 22:50 22,3 C 21,1 C 21,1 C 77 % 1015,1 hPa 0,0 l/m 0 min 0 min 0 W/m 6,4 km/h (2 Bft) 100,00 %
01.08.2020 22:52 22,2 C 21,1 C 21,1 C 76 % 1015,1 hPa 0,0 l/m 0 min 0 min 0 W/m 6,4 km/h (2 Bft) 100,00 %
01.08.2020 22:54 22,2 C 21,1 C 21,1 C 76 % 1015,1 hPa 0,0 l/m 0 min 0 min 0 W/m 12,9 km/h (3 Bft) 97,87 %
01.08.2020 22:56 22,2 C 21,1 C 21,1 C 75 % 1015,1 hPa 0,0 l/m 0 min 0 min 0 W/m 9,7 km/h (2 Bft) 100,00 %
01.08.2020 22:58 22,2 C 21,1 C 21,1 C 75 % 1015,1 hPa 0,0 l/m 0 min 0 min 0 W/m 6,4 km/h (2 Bft) 97,87 %
01.08.2020 23:00 22,2 C 21,7 C 21,1 C 75 % 1015,2 hPa 0,0 l/m 0 min 0 min 0 W/m 3,2 km/h (1 Bft) 97,83 %
01.08.2020 23:02 22,2 C 21,7 C 21,1 C 75 % 1015,2 hPa 0,0 l/m 0 min 0 min 0 W/m 6,4 km/h (2 Bft) 100,00 %
01.08.2020 23:04 22,2 C 21,1 C 21,1 C 75 % 1015,1 hPa 0,0 l/m 0 min 0 min 0 W/m 3,2 km/h (1 Bft) 100,00 %
01.08.2020 23:06 22,2 C 21,1 C 21,1 C 75 % 1015,1 hPa 0,0 l/m 0 min 0 min 0 W/m 6,4 km/h (2 Bft) 97,87 %
01.08.2020 23:08 22,2 C 21,1 C 21,1 C 75 % 1015,1 hPa 0,0 l/m 0 min 0 min 0 W/m 3,2 km/h (1 Bft) 100,00 %
01.08.2020 23:10 22,2 C 21,1 C 21,1 C 74 % 1015,1 hPa 0,0 l/m 0 min 0 min 0 W/m 3,2 km/h (1 Bft) 97,83 %
01.08.2020 23:12 22,2 C 21,1 C 21,1 C 74 % 1015,1 hPa 0,0 l/m 0 min 0 min 0 W/m 3,2 km/h (1 Bft) 95,74 %
01.08.2020 23:14 22,2 C 21,1 C 21,1 C 73 % 1015,0 hPa 0,0 l/m 0 min 0 min 0 W/m 3,2 km/h (1 Bft) 100,00 %
01.08.2020 23:16 22,1 C 21,1 C 21,1 C 73 % 1015,0 hPa 0,0 l/m 0 min 0 min 0 W/m 3,2 km/h (1 Bft) 97,87 %
01.08.2020 23:18 22,1 C 21,1 C 21,1 C 72 % 1015,0 hPa 0,0 l/m 0 min 0 min 0 W/m 3,2 km/h (1 Bft) 95,74 %
01.08.2020 23:20 22,1 C 21,1 C 21,1 C 72 % 1015,0 hPa 0,0 l/m 0 min 0 min 0 W/m 3,2 km/h (1 Bft) 97,87 %
01.08.2020 23:22 22,1 C 21,1 C 21,1 C 72 % 1014,9 hPa 0,0 l/m 0 min 0 min 0 W/m 3,2 km/h (1 Bft) 97,83 %
01.08.2020 23:24 22,1 C 21,1 C 21,1 C 72 % 1014,9 hPa 0,0 l/m 0 min 0 min 0 W/m 3,2 km/h (1 Bft) 95,92 %
01.08.2020 23:26 22,1 C 21,1 C 21,1 C 72 % 1014,9 hPa 0,0 l/m 0 min 0 min 0 W/m 3,2 km/h (1 Bft) 95,74 %
01.08.2020 23:28 22,1 C 21,1 C 21,1 C 71 % 1014,9 hPa 0,0 l/m 0 min 0 min 0 W/m 6,4 km/h (2 Bft) 97,87 %
01.08.2020 23:30 22,1 C 21,1 C 21,1 C 71 % 1014,9 hPa 0,0 l/m 0 min 0 min 0 W/m 3,2 km/h (1 Bft) 93,62 %
01.08.2020 23:32 22,1 C 21,1 C 21,1 C 71 % 1014,9 hPa 0,0 l/m 0 min 0 min 0 W/m 3,2 km/h (1 Bft) 95,65 %
01.08.2020 23:34 22,1 C 20,6 C 21,1 C 71 % 1014,8 hPa 0,0 l/m 0 min 0 min 0 W/m 3,2 km/h (1 Bft) 95,74 %
01.08.2020 23:36 22,1 C 20,6 C 20,6 C 71 % 1014,9 hPa 0,0 l/m 0 min 0 min 0 W/m 3,2 km/h (1 Bft) 95,74 %
01.08.2020 23:38 22,1 C 20,6 C 20,6 C 71 % 1015,0 hPa 0,0 l/m 0 min 0 min 0 W/m 3,2 km/h (1 Bft) 95,74 %
01.08.2020 23:40 22,1 C 20,6 C 20,6 C 71 % 1014,9 hPa 0,0 l/m 0 min 0 min 0 W/m 3,2 km/h (1 Bft) 93,62 %
01.08.2020 23:42 22,1 C 20,6 C 20,6 C 71 % 1014,9 hPa 0,0 l/m 0 min 0 min 0 W/m 6,4 km/h (2 Bft) 95,74 %
01.08.2020 23:44 22,1 C 20,6 C 20,6 C 71 % 1014,9 hPa 0,0 l/m 0 min 0 min 0 W/m 6,4 km/h (2 Bft) 95,65 %
01.08.2020 23:46 22,1 C 20,6 C 20,6 C 71 % 1014,9 hPa 0,0 l/m 0 min 0 min 0 W/m 3,2 km/h (1 Bft) 93,62 %
01.08.2020 23:48 22,0 C 20,6 C 20,6 C 71 % 1014,9 hPa 0,0 l/m 0 min 0 min 0 W/m 6,4 km/h (2 Bft) 95,74 %
01.08.2020 23:50 22,0 C 20,6 C 20,6 C 71 % 1014,9 hPa 0,0 l/m 0 min 0 min 0 W/m 3,2 km/h (1 Bft) 93,62 %
01.08.2020 23:52 21,9 C 20,6 C 20,6 C 71 % 1014,9 hPa 0,0 l/m 0 min 0 min 0 W/m 3,2 km/h (1 Bft) 95,74 %
01.08.2020 23:54 21,9 C 20,6 C 20,6 C 70 % 1014,8 hPa 0,0 l/m 0 min 0 min 0 W/m 6,4 km/h (2 Bft) 93,62 %
01.08.2020 23:56 21,9 C 20,6 C 20,6 C 70 % 1014,8 hPa 0,0 l/m 0 min 0 min 0 W/m 6,4 km/h (2 Bft) 91,30 %
01.08.2020 23:58 21,9 C 20,6 C 20,6 C 70 % 1014,8 hPa 0,0 l/m 0 min 0 min 0 W/m 3,2 km/h (1 Bft) 93,62 %
_ Min-Zeit 23:52 00:34 06:18 14:38 02:50 - - - - 00:00 11:56
Minimum _ 21,9 C 20,6 C 19,4 C 49 % 1012,0 hPa - - - - 0,0 km/h (0 Bft) 75,00 %
_ Max-Zeit 15:04 14:48 14:10 22:36 23:00 00:00 13:16 05:14 13:18 10:12 00:00
Maximum _ 33,4 C 38,9 C 38,9 C 80 % 1015,2 hPa 0,0 l/m 5 min 2 min 898 W/m 38,6 km/h
O-SO (5 Bft)
100,00 %
Durchschnitt _ 26,4 C 26,5 C 24,7 C 66 % 1013,6 hPa #0,0 l/m #6:35 h #16 min. 350 W/m 8,5 km/h (2 Bft) 97,31 %
© 2020 W. Hausmann